| time (UTC) | temp F | wind direction | speed MPH | gust MPH | rain 1hr in | rain 24hr in | rain mn in | humidity % | barometer mb |
| 20260507195639 | 60 | 224 | 1.0 | 4.0 | 0.00 | 0.15 | 0.09 | 59 | 1008.4 |
| 20260507195537 | 60 | 229 | 1.0 | 4.0 | 0.00 | 0.15 | 0.09 | 58 | 1008.4 |
| 20260507195431 | 60 | 289 | 1.0 | 4.0 | 0.00 | 0.15 | 0.09 | 60 | 1008.4 |
| 20260507195326 | 60 | 169 | 1.0 | 4.0 | 0.00 | 0.15 | 0.09 | 60 | 1008.4 |
| 20260507195220 | 60 | 134 | 1.0 | 4.0 | 0.00 | 0.15 | 0.09 | 58 | 1008.5 |
| 20260507194854 | 60 | 163 | 1.0 | 4.0 | 0.00 | 0.15 | 0.09 | 62 | 1008.5 |
| 20260507194526 | 60 | 97 | 0.0 | 4.0 | 0.00 | 0.15 | 0.09 | 58 | 1008.5 |
| 20260507194420 | 60 | 121 | 0.0 | 4.0 | 0.00 | 0.15 | 0.09 | 58 | 1008.5 |
| 20260507194313 | 60 | 80 | 0.0 | 4.0 | 0.00 | 0.15 | 0.09 | 59 | 1008.5 |
| 20260507194208 | 60 | 103 | 0.0 | 4.0 | 0.00 | 0.15 | 0.09 | 58 | 1008.5 |
| 20260507194104 | 60 | 217 | 0.0 | 2.0 | 0.00 | 0.15 | 0.09 | 58 | 1008.5 |
| 20260507194001 | 60 | 229 | 0.0 | 2.0 | 0.00 | 0.15 | 0.09 | 57 | 1008.4 |
| 20260507193856 | 60 | 209 | 0.0 | 2.0 | 0.00 | 0.15 | 0.09 | 58 | 1008.5 |
| 20260507193750 | 60 | 215 | 0.0 | 2.0 | 0.00 | 0.15 | 0.09 | 59 | 1008.5 |
| 20260507193425 | 60 | 186 | 0.0 | 2.0 | 0.00 | 0.15 | 0.09 | 60 | 1008.5 |
| 20260507193320 | 60 | 173 | 0.0 | 2.0 | 0.00 | 0.15 | 0.09 | 59 | 1008.5 |
| 20260507193213 | 60 | 150 | 0.0 | 2.0 | 0.00 | 0.15 | 0.09 | 58 | 1008.5 |
| 20260507192851 | 59 | 128 | 0.0 | 4.0 | 0.00 | 0.15 | 0.09 | 61 | 1008.5 |
| 20260507192747 | 60 | 86 | 0.0 | 4.0 | 0.00 | 0.15 | 0.09 | 60 | 1008.5 |
| 20260507192644 | 60 | 38 | 0.0 | 4.0 | 0.00 | 0.15 | 0.09 | 59 | 1008.5 |
| 20260507192537 | 60 | 80 | 0.0 | 4.0 | 0.00 | 0.15 | 0.09 | 58 | 1008.6 |
| 20260507192431 | 60 | 101 | 1.0 | 4.0 | 0.00 | 0.15 | 0.09 | 61 | 1008.6 |
| 20260507192329 | 60 | 26 | 1.0 | 4.0 | 0.00 | 0.15 | 0.09 | 60 | 1008.6 |
| 20260507192227 | 60 | 221 | 1.0 | 4.0 | 0.00 | 0.15 | 0.09 | 61 | 1008.7 |
| 20260507192122 | 60 | 259 | 1.0 | 4.0 | 0.00 | 0.15 | 0.09 | 61 | 1008.7 |
| 20260507191757 | 60 | 211 | 1.0 | 4.0 | 0.00 | 0.15 | 0.09 | 58 | 1008.6 |
| 20260507191211 | 61 | 19 | 0.0 | 4.0 | 0.00 | 0.15 | 0.09 | 59 | 1008.7 |
| 20260507190406 | 60 | 9 | 1.0 | 3.0 | 0.00 | 0.15 | 0.09 | 61 | 1008.9 |
| 20260507190300 | 60 | 117 | 1.0 | 3.0 | 0.00 | 0.15 | 0.09 | 60 | 1008.9 |
| 20260507190155 | 60 | 153 | 1.0 | 3.0 | 0.00 | 0.15 | 0.09 | 60 | 1008.9 |
| 20260507190053 | 60 | 105 | 1.0 | 3.0 | 0.00 | 0.15 | 0.09 | 60 | 1009.0 |
| 20260507185948 | 60 | 90 | 0.0 | 3.0 | 0.00 | 0.15 | 0.09 | 60 | 1009.0 |
| 20260507185840 | 60 | 140 | 0.0 | 3.0 | 0.00 | 0.15 | 0.09 | 63 | 1009.0 |
| 20260507185736 | 59 | 112 | 0.0 | 3.0 | 0.00 | 0.15 | 0.09 | 63 | 1009.0 |
| 20260507185631 | 59 | 138 | 0.0 | 2.0 | 0.00 | 0.15 | 0.09 | 64 | 1009.1 |
| 20260507185522 | 59 | 128 | 0.0 | 2.0 | 0.00 | 0.15 | 0.09 | 63 | 1009.1 |
| 20260507185417 | 59 | 76 | 0.0 | 2.0 | 0.00 | 0.15 | 0.09 | 62 | 1009.1 |
| 20260507185311 | 59 | 90 | 0.0 | 3.0 | 0.00 | 0.15 | 0.09 | 60 | 1009.1 |
| 20260507185208 | 59 | 130 | 0.0 | 3.0 | 0.00 | 0.15 | 0.09 | 60 | 1009.1 |
| 20260507185104 | 59 | 158 | 0.0 | 3.0 | 0.00 | 0.15 | 0.09 | 62 | 1009.2 |
| 20260507185000 | 59 | 196 | 0.0 | 3.0 | 0.00 | 0.15 | 0.09 | 60 | 1009.2 |
| 20260507184857 | 59 | 157 | 0.0 | 3.0 | 0.00 | 0.15 | 0.09 | 60 | 1009.1 |
| 20260507184530 | 60 | 217 | 0.0 | 3.0 | 0.00 | 0.15 | 0.09 | 58 | 1008.9 |
| 20260507184426 | 60 | 214 | 0.0 | 3.0 | 0.00 | 0.15 | 0.09 | 58 | 1009.0 |
| 20260507184321 | 61 | 235 | 1.0 | 3.0 | 0.00 | 0.15 | 0.09 | 61 | 1009.0 |
| 20260507184217 | 61 | 195 | 1.0 | 3.0 | 0.00 | 0.15 | 0.09 | 60 | 1008.9 |
| 20260507184115 | 61 | 184 | 1.0 | 3.0 | 0.00 | 0.15 | 0.09 | 60 | 1009.0 |
| 20260507184011 | 61 | 14 | 1.0 | 3.0 | 0.00 | 0.15 | 0.09 | 59 | 1009.0 |
| 20260507183906 | 61 | 113 | 1.0 | 3.0 | 0.00 | 0.15 | 0.09 | 56 | 1009.0 |
| 20260507183759 | 61 | 223 | 1.0 | 3.0 | 0.00 | 0.15 | 0.09 | 59 | 1009.0 |
| 20260507183652 | 61 | 113 | 1.0 | 3.0 | 0.00 | 0.15 | 0.09 | 60 | 1009.1 |
| 20260507183545 | 61 | 139 | 1.0 | 3.0 | 0.00 | 0.15 | 0.09 | 58 | 1009.1 |
| 20260507183222 | 61 | 209 | 0.0 | 3.0 | 0.00 | 0.15 | 0.09 | 56 | 1009.2 |
| 20260507183116 | 62 | 225 | 0.0 | 3.0 | 0.00 | 0.15 | 0.09 | 57 | 1009.2 |
| 20260507183013 | 63 | 261 | 0.0 | 3.0 | 0.00 | 0.15 | 0.09 | 58 | 1009.2 |
| 20260507182648 | 62 | 122 | 0.0 | 3.0 | 0.00 | 0.15 | 0.09 | 60 | 1009.1 |
| 20260507182544 | 62 | 0 | 0.0 | 3.0 | 0.00 | 0.15 | 0.09 | 59 | 1009.1 |
| 20260507182222 | 61 | 33 | 0.0 | 3.0 | 0.00 | 0.15 | 0.09 | 57 | 1009.1 |
| 20260507182117 | 61 | 200 | 0.0 | 3.0 | 0.00 | 0.15 | 0.09 | 54 | 1009.1 |
| 20260507182010 | 61 | 189 | 0.0 | 3.0 | 0.00 | 0.15 | 0.09 | 56 | 1009.1 |
| 20260507181905 | 62 | 221 | 0.0 | 3.0 | 0.00 | 0.15 | 0.09 | 58 | 1009.2 |
| 20260507181802 | 62 | 171 | 0.0 | 3.0 | 0.00 | 0.15 | 0.09 | 53 | 1009.2 |
| 20260507181654 | 62 | 140 | 0.0 | 3.0 | 0.00 | 0.15 | 0.09 | 54 | 1009.3 |
| 20260507181553 | 62 | 66 | 0.0 | 3.0 | 0.00 | 0.15 | 0.09 | 56 | 1009.3 |
| 20260507181446 | 62 | 209 | 0.0 | 3.0 | 0.00 | 0.15 | 0.09 | 53 | 1009.4 |
| 20260507181341 | 61 | 277 | 0.0 | 3.0 | 0.00 | 0.15 | 0.09 | 53 | 1009.3 |
| 20260507181014 | 61 | 347 | 0.0 | 2.0 | 0.00 | 0.15 | 0.09 | 53 | 1009.2 |
| 20260507180911 | 61 | 90 | 0.0 | 2.0 | 0.00 | 0.15 | 0.09 | 55 | 1009.3 |
| 20260507180805 | 61 | 71 | 1.0 | 2.0 | 0.00 | 0.15 | 0.09 | 55 | 1009.3 |
| 20260507180702 | 61 | 105 | 0.0 | 2.0 | 0.00 | 0.15 | 0.09 | 57 | 1009.1 |
| 20260507180556 | 61 | 104 | 0.0 | 2.0 | 0.00 | 0.15 | 0.09 | 55 | 1009.2 |
| 20260507180449 | 61 | 85 | 0.0 | 2.0 | 0.00 | 0.15 | 0.09 | 55 | 1009.2 |
| 20260507180342 | 61 | 94 | 0.0 | 2.0 | 0.00 | 0.15 | 0.09 | 55 | 1009.3 |
| 20260507180236 | 61 | 58 | 0.0 | 4.0 | 0.00 | 0.15 | 0.09 | 55 | 1009.3 |
| 20260507180133 | 61 | 73 | 0.0 | 4.0 | 0.00 | 0.15 | 0.09 | 55 | 1009.4 |
| 20260507180028 | 61 | 329 | 0.0 | 4.0 | 0.00 | 0.15 | 0.09 | 51 | 1009.4 |
| 20260507175923 | 61 | 82 | 0.0 | 4.0 | 0.00 | 0.15 | 0.09 | 52 | 1009.5 |
| 20260507175818 | 61 | 121 | 0.0 | 4.0 | 0.00 | 0.15 | 0.09 | 54 | 1009.5 |
| 20260507175710 | 62 | 235 | 0.0 | 4.0 | 0.00 | 0.15 | 0.09 | 53 | 1009.5 |
| 20260507175605 | 62 | 118 | 0.0 | 4.0 | 0.00 | 0.15 | 0.09 | 52 | 1009.6 |
| 20260507175503 | 62 | 41 | 0.0 | 4.0 | 0.00 | 0.15 | 0.09 | 54 | 1009.6 |
| 20260507175359 | 61 | 93 | 0.0 | 4.0 | 0.00 | 0.15 | 0.09 | 53 | 1009.5 |
| 20260507175252 | 61 | 109 | 0.0 | 4.0 | 0.00 | 0.15 | 0.09 | 51 | 1009.5 |
| 20260507175146 | 61 | 164 | 0.0 | 4.0 | 0.00 | 0.15 | 0.09 | 56 | 1009.5 |
| 20260507174817 | 61 | 80 | 1.0 | 4.0 | 0.00 | 0.15 | 0.09 | 55 | 1009.6 |
| 20260507174711 | 61 | 80 | 1.0 | 4.0 | 0.00 | 0.15 | 0.09 | 51 | 1009.6 |
| 20260507174604 | 61 | 342 | 1.0 | 4.0 | 0.00 | 0.15 | 0.09 | 50 | 1009.6 |
| 20260507174459 | 61 | 78 | 1.0 | 4.0 | 0.00 | 0.15 | 0.09 | 51 | 1009.6 |
| 20260507174131 | 60 | 100 | 1.0 | 3.0 | 0.00 | 0.15 | 0.09 | 49 | 1009.4 |
| 20260507173809 | 60 | 61 | 1.0 | 3.0 | 0.00 | 0.15 | 0.09 | 57 | 1009.6 |
| 20260507173703 | 60 | 46 | 0.0 | 3.0 | 0.00 | 0.15 | 0.09 | 51 | 1009.7 |
| 20260507173335 | 60 | 254 | 0.0 | 2.0 | 0.00 | 0.15 | 0.09 | 49 | 1009.7 |
| 20260507173230 | 60 | 252 | 0.0 | 2.0 | 0.00 | 0.15 | 0.09 | 49 | 1009.8 |
| 20260507173125 | 60 | 242 | 0.0 | 2.0 | 0.00 | 0.15 | 0.09 | 52 | 1009.8 |
| 20260507173020 | 60 | 230 | 0.0 | 2.0 | 0.00 | 0.15 | 0.09 | 56 | 1009.8 |
| 20260507172916 | 61 | 233 | 0.0 | 2.0 | 0.00 | 0.15 | 0.09 | 55 | 1009.8 |
| 20260507172809 | 61 | 32 | 0.0 | 3.0 | 0.00 | 0.15 | 0.09 | 51 | 1009.8 |
| 20260507172705 | 61 | 28 | 0.0 | 3.0 | 0.00 | 0.15 | 0.09 | 51 | 1009.8 |
| 20260507172557 | 62 | 58 | 0.0 | 3.0 | 0.00 | 0.15 | 0.09 | 54 | 1009.8 |
| 20260507172235 | 61 | 68 | 0.0 | 3.0 | 0.00 | 0.15 | 0.09 | 53 | 1009.9 |
| 20260507172133 | 60 | 281 | 0.0 | 3.0 | 0.00 | 0.15 | 0.09 | 57 | 1009.8 |
| 20260507172030 | 60 | 116 | 0.0 | 3.0 | 0.00 | 0.15 | 0.09 | 57 | 1009.9 |
| 20260507171923 | 59 | 242 | 0.0 | 3.0 | 0.00 | 0.15 | 0.09 | 53 | 1009.9 |
| 20260507171559 | 59 | 159 | 0.0 | 3.0 | 0.00 | 0.15 | 0.09 | 56 | 1010.0 |
| 20260507171453 | 58 | 173 | 0.0 | 3.0 | 0.00 | 0.15 | 0.09 | 60 | 1010.0 |
| 20260507171349 | 58 | 200 | 0.0 | 3.0 | 0.00 | 0.15 | 0.09 | 58 | 1010.0 |
| 20260507171241 | 58 | 180 | 0.0 | 3.0 | 0.00 | 0.15 | 0.09 | 55 | 1010.1 |
| 20260507170441 | 57 | 49 | 0.0 | 2.0 | 0.00 | 0.15 | 0.09 | 63 | 1010.3 |
| 20260507170333 | 57 | 5 | 0.0 | 2.0 | 0.00 | 0.15 | 0.09 | 60 | 1010.4 |
| 20260507170229 | 57 | 346 | 0.0 | 2.0 | 0.00 | 0.15 | 0.09 | 61 | 1010.4 |
| 20260507170125 | 57 | 10 | 0.0 | 2.0 | 0.00 | 0.15 | 0.09 | 63 | 1010.5 |
| 20260507170018 | 57 | 76 | 0.0 | 1.0 | 0.00 | 0.15 | 0.09 | 63 | 1010.4 |
| 20260507165914 | 57 | 114 | 0.0 | 1.0 | 0.00 | 0.15 | 0.09 | 65 | 1010.5 |
| 20260507165547 | 57 | 205 | 0.0 | 0.0 | 0.00 | 0.15 | 0.09 | 66 | 1010.7 |
| 20260507165444 | 57 | 205 | 0.0 | 0.0 | 0.00 | 0.15 | 0.09 | 63 | 1010.8 |
| 20260507165340 | 57 | 205 | 0.0 | 0.0 | 0.00 | 0.15 | 0.09 | 63 | 1010.8 |
| 20260507165233 | 57 | 205 | 0.0 | 0.0 | 0.00 | 0.15 | 0.09 | 64 | 1010.8 |
| 20260507165124 | 57 | 205 | 0.0 | 0.0 | 0.00 | 0.15 | 0.09 | 64 | 1010.7 |
| 20260507165021 | 57 | 205 | 0.0 | 0.0 | 0.00 | 0.15 | 0.09 | 68 | 1010.7 |
| 20260507164914 | 57 | 205 | 0.0 | 0.0 | 0.00 | 0.15 | 0.09 | 67 | 1010.8 |
| 20260507164807 | 57 | 205 | 0.0 | 1.0 | 0.00 | 0.15 | 0.09 | 66 | 1010.8 |
| 20260507164701 | 57 | 205 | 0.0 | 1.0 | 0.00 | 0.15 | 0.09 | 61 | 1010.8 |
| 20260507164559 | 57 | 205 | 0.0 | 1.0 | 0.00 | 0.15 | 0.09 | 60 | 1010.8 |
| 20260507164452 | 57 | 212 | 0.0 | 1.0 | 0.00 | 0.15 | 0.09 | 62 | 1010.8 |
| 20260507164345 | 57 | 212 | 0.0 | 1.0 | 0.00 | 0.15 | 0.09 | 58 | 1010.7 |
| 20260507164236 | 57 | 212 | 0.0 | 1.0 | 0.00 | 0.15 | 0.09 | 58 | 1010.7 |
| 20260507164133 | 57 | 213 | 0.0 | 1.0 | 0.00 | 0.15 | 0.09 | 60 | 1010.8 |
| 20260507164028 | 57 | 213 | 0.0 | 1.0 | 0.00 | 0.15 | 0.09 | 62 | 1010.9 |
| 20260507163921 | 57 | 213 | 0.0 | 1.0 | 0.00 | 0.15 | 0.09 | 63 | 1010.9 |
| 20260507163815 | 57 | 127 | 0.0 | 1.0 | 0.00 | 0.15 | 0.09 | 63 | 1011.0 |
| 20260507163711 | 57 | 89 | 0.0 | 1.0 | 0.00 | 0.15 | 0.09 | 62 | 1011.0 |
| 20260507163607 | 57 | 89 | 0.0 | 1.0 | 0.00 | 0.15 | 0.09 | 61 | 1011.0 |
| 20260507163244 | 57 | 51 | 0.0 | 2.0 | 0.00 | 0.15 | 0.09 | 58 | 1010.9 |
| 20260507163137 | 57 | 51 | 0.0 | 2.0 | 0.00 | 0.15 | 0.09 | 57 | 1010.9 |
| 20260507163031 | 57 | 51 | 0.0 | 2.0 | 0.00 | 0.15 | 0.09 | 56 | 1011.1 |
| 20260507162925 | 57 | 51 | 0.0 | 2.0 | 0.00 | 0.15 | 0.09 | 56 | 1011.2 |
| 20260507162821 | 57 | 51 | 0.0 | 2.0 | 0.00 | 0.15 | 0.09 | 57 | 1011.2 |
| 20260507162715 | 57 | 51 | 0.0 | 2.0 | 0.00 | 0.15 | 0.09 | 62 | 1011.3 |
| 20260507162611 | 57 | 51 | 0.0 | 2.0 | 0.00 | 0.15 | 0.09 | 64 | 1011.2 |
| 20260507162503 | 57 | 57 | 0.0 | 2.0 | 0.00 | 0.15 | 0.09 | 60 | 1011.1 |
| 20260507162358 | 57 | 57 | 0.0 | 4.0 | 0.00 | 0.15 | 0.09 | 59 | 1011.2 |
| 20260507162253 | 57 | 57 | 0.0 | 4.0 | 0.00 | 0.15 | 0.09 | 58 | 1011.1 |
| 20260507162144 | 56 | 57 | 0.0 | 4.0 | 0.00 | 0.15 | 0.09 | 57 | 1011.1 |
| 20260507162041 | 56 | 59 | 0.0 | 4.0 | 0.00 | 0.15 | 0.09 | 56 | 1011.1 |
| 20260507161936 | 56 | 38 | 0.0 | 4.0 | 0.00 | 0.15 | 0.09 | 58 | 1011.1 |
| 20260507161829 | 56 | 9 | 0.0 | 4.0 | 0.00 | 0.15 | 0.09 | 59 | 1011.0 |
| 20260507161726 | 56 | 271 | 0.0 | 4.0 | 0.00 | 0.15 | 0.09 | 61 | 1011.1 |
| 20260507161617 | 56 | 12 | 0.0 | 4.0 | 0.00 | 0.15 | 0.09 | 61 | 1011.1 |
| 20260507161514 | 56 | 115 | 0.0 | 4.0 | 0.00 | 0.15 | 0.09 | 59 | 1011.0 |
| 20260507161409 | 56 | 109 | 0.0 | 4.0 | 0.00 | 0.15 | 0.09 | 58 | 1011.1 |
| 20260507161306 | 56 | 88 | 0.0 | 4.0 | 0.00 | 0.15 | 0.09 | 58 | 1011.1 |
| 20260507161159 | 56 | 320 | 0.0 | 4.0 | 0.00 | 0.15 | 0.09 | 60 | 1011.2 |
| 20260507160835 | 56 | 48 | 0.0 | 4.0 | 0.00 | 0.15 | 0.09 | 61 | 1011.3 |
| 20260507160729 | 56 | 20 | 0.0 | 4.0 | 0.00 | 0.15 | 0.09 | 60 | 1011.2 |
| 20260507160623 | 56 | 5 | 0.0 | 4.0 | 0.00 | 0.15 | 0.09 | 62 | 1011.2 |
| 20260507160255 | 56 | 294 | 0.0 | 4.0 | 0.00 | 0.15 | 0.09 | 67 | 1011.2 |
| 20260507160150 | 56 | 331 | 0.0 | 4.0 | 0.00 | 0.15 | 0.09 | 64 | 1011.2 |
| 20260507160042 | 56 | 283 | 0.0 | 4.0 | 0.00 | 0.15 | 0.09 | 64 | 1011.2 |
| 20260507155936 | 56 | 306 | 0.0 | 4.0 | 0.00 | 0.15 | 0.09 | 65 | 1011.2 |
| 20260507155831 | 56 | 306 | 0.0 | 4.0 | 0.00 | 0.15 | 0.09 | 69 | 1011.3 |
| 20260507155727 | 56 | 323 | 0.0 | 4.0 | 0.00 | 0.15 | 0.09 | 69 | 1011.3 |
| 20260507155625 | 56 | 44 | 0.0 | 4.0 | 0.00 | 0.15 | 0.09 | 67 | 1011.3 |
| 20260507155519 | 55 | 14 | 0.0 | 4.0 | 0.00 | 0.15 | 0.09 | 67 | 1011.3 |
| 20260507155412 | 55 | 107 | 1.0 | 4.0 | 0.00 | 0.15 | 0.09 | 70 | 1011.3 |
| 20260507155307 | 55 | 308 | 1.0 | 4.0 | 0.00 | 0.15 | 0.09 | 66 | 1011.3 |
| 20260507155200 | 55 | 255 | 0.0 | 4.0 | 0.00 | 0.14 | 0.09 | 67 | 1011.3 |
| 20260507154836 | 55 | 31 | 0.0 | 4.0 | 0.00 | 0.14 | 0.08 | 65 | 1011.4 |
| 20260507154728 | 55 | 70 | 0.0 | 4.0 | 0.00 | 0.14 | 0.08 | 69 | 1011.3 |
| 20260507154626 | 55 | 282 | 0.0 | 4.0 | 0.00 | 0.14 | 0.08 | 67 | 1011.4 |
| 20260507154522 | 55 | 28 | 0.0 | 4.0 | 0.00 | 0.14 | 0.08 | 65 | 1011.3 |
| 20260507154418 | 55 | 67 | 0.0 | 4.0 | 0.00 | 0.14 | 0.08 | 68 | 1011.3 |
| 20260507154312 | 55 | 27 | 0.0 | 2.0 | 0.00 | 0.14 | 0.08 | 68 | 1011.3 |
| 20260507154208 | 55 | 296 | 0.0 | 1.0 | 0.00 | 0.14 | 0.08 | 68 | 1011.2 |
| 20260507154100 | 54 | 67 | 0.0 | 1.0 | 0.00 | 0.14 | 0.08 | 67 | 1011.2 |
| 20260507153953 | 54 | 67 | 0.0 | 2.0 | 0.00 | 0.14 | 0.08 | 67 | 1011.2 |
| 20260507153629 | 54 | 65 | 0.0 | 2.0 | 0.00 | 0.14 | 0.08 | 71 | 1011.3 |
| 20260507153309 | 54 | 355 | 0.0 | 2.0 | 0.00 | 0.14 | 0.08 | 72 | 1011.3 |
| 20260507153203 | 54 | 274 | 0.0 | 2.0 | 0.00 | 0.14 | 0.08 | 73 | 1011.3 |
| 20260507153101 | 54 | 264 | 0.0 | 2.0 | 0.00 | 0.14 | 0.08 | 75 | 1011.3 |
| 20260507152955 | 54 | 187 | 0.0 | 1.0 | 0.00 | 0.14 | 0.08 | 78 | 1011.3 |
| 20260507152850 | 54 | 296 | 0.0 | 1.0 | 0.00 | 0.14 | 0.08 | 77 | 1011.3 |
| 20260507152746 | 54 | 88 | 0.0 | 1.0 | 0.00 | 0.14 | 0.08 | 77 | 1011.2 |
| 20260507152641 | 54 | 325 | 0.0 | 1.0 | 0.00 | 0.14 | 0.08 | 74 | 1011.2 |
| 20260507152536 | 54 | 5 | 0.0 | 1.0 | 0.00 | 0.14 | 0.08 | 74 | 1011.3 |
| 20260507152431 | 54 | 5 | 0.0 | 1.0 | 0.00 | 0.14 | 0.08 | 73 | 1011.3 |
| 20260507152105 | 53 | 97 | 0.0 | 1.0 | 0.00 | 0.14 | 0.08 | 72 | 1011.4 |
| 20260507152003 | 53 | 97 | 0.0 | 1.0 | 0.00 | 0.14 | 0.08 | 76 | 1011.5 |
| 20260507151857 | 53 | 49 | 0.0 | 0.0 | 0.00 | 0.14 | 0.08 | 76 | 1011.4 |
| 20260507151532 | 53 | 49 | 0.0 | 0.0 | 0.00 | 0.14 | 0.08 | 74 | 1011.4 |
| 20260507151425 | 53 | 49 | 0.0 | 0.0 | 0.00 | 0.14 | 0.08 | 74 | 1011.4 |
| 20260507151319 | 53 | 49 | 0.0 | 0.0 | 0.00 | 0.14 | 0.08 | 75 | 1011.5 |
| 20260507151211 | 53 | 49 | 0.0 | 0.0 | 0.00 | 0.14 | 0.08 | 74 | 1011.5 |
| 20260507151109 | 53 | 49 | 0.0 | 0.0 | 0.00 | 0.14 | 0.08 | 74 | 1011.5 |
| 20260507150522 | 53 | 13 | 0.0 | 2.0 | 0.00 | 0.14 | 0.08 | 75 | 1011.6 |
| 20260507150419 | 53 | 13 | 0.0 | 2.0 | 0.00 | 0.14 | 0.08 | 75 | 1011.6 |
| 20260507150054 | 53 | 321 | 0.0 | 2.0 | 0.00 | 0.14 | 0.08 | 71 | 1011.7 |
| 20260507145949 | 53 | 337 | 0.0 | 2.0 | 0.00 | 0.14 | 0.08 | 72 | 1011.7 |
| 20260507145844 | 53 | 337 | 0.0 | 2.0 | 0.00 | 0.15 | 0.08 | 72 | 1011.8 |
| 20260507145739 | 52 | 84 | 0.0 | 0.0 | 0.00 | 0.15 | 0.08 | 72 | 1011.7 |
| 20260507145631 | 52 | 84 | 0.0 | 1.0 | 0.00 | 0.15 | 0.08 | 72 | 1011.7 |
| 20260507145524 | 52 | 84 | 0.0 | 1.0 | 0.00 | 0.15 | 0.08 | 76 | 1011.7 |
| 20260507145416 | 52 | 30 | 0.0 | 1.0 | 0.00 | 0.15 | 0.08 | 77 | 1011.7 |
| 20260507145312 | 52 | 347 | 0.0 | 0.0 | 0.00 | 0.15 | 0.08 | 77 | 1011.7 |
| 20260507145208 | 52 | 277 | 0.0 | 0.0 | 0.00 | 0.15 | 0.08 | 77 | 1011.8 |
| 20260507145102 | 52 | 277 | 0.0 | 2.0 | 0.00 | 0.15 | 0.08 | 77 | 1011.8 |
| 20260507145000 | 52 | 277 | 0.0 | 2.0 | 0.00 | 0.15 | 0.08 | 78 | 1011.8 |
| 20260507144857 | 52 | 355 | 0.0 | 2.0 | 0.00 | 0.15 | 0.08 | 78 | 1011.8 |
| 20260507144756 | 52 | 355 | 0.0 | 2.0 | 0.00 | 0.15 | 0.08 | 77 | 1011.8 |
| 20260507144651 | 52 | 355 | 0.0 | 2.0 | 0.00 | 0.15 | 0.08 | 77 | 1011.8 |
| 20260507144547 | 52 | 13 | 0.0 | 2.0 | 0.00 | 0.15 | 0.08 | 78 | 1011.8 |
| 20260507144443 | 52 | 355 | 0.0 | 0.0 | 0.00 | 0.15 | 0.08 | 78 | 1011.8 |
| 20260507143859 | 52 | 355 | 0.0 | 0.0 | 0.00 | 0.15 | 0.08 | 81 | 1012.0 |
| 20260507143755 | 52 | 355 | 0.0 | 0.0 | 0.00 | 0.15 | 0.08 | 82 | 1011.9 |
| 20260507143651 | 52 | 355 | 0.0 | 0.0 | 0.00 | 0.15 | 0.08 | 83 | 1012.0 |
| 20260507143544 | 52 | 355 | 0.0 | 0.0 | 0.00 | 0.15 | 0.08 | 83 | 1012.0 |
| 20260507143441 | 52 | 355 | 0.0 | 0.0 | 0.00 | 0.15 | 0.08 | 84 | 1012.0 |
| 20260507143117 | 52 | 355 | 0.0 | 0.0 | 0.00 | 0.16 | 0.08 | 83 | 1012.0 |
| 20260507143010 | 52 | 355 | 0.0 | 0.0 | 0.00 | 0.16 | 0.08 | 83 | 1012.1 |
| 20260507142903 | 52 | 355 | 0.0 | 0.0 | 0.00 | 0.17 | 0.08 | 83 | 1012.0 |
| 20260507142755 | 52 | 355 | 0.0 | 0.0 | 0.00 | 0.17 | 0.08 | 82 | 1012.0 |
| 20260507142431 | 52 | 355 | 0.0 | 0.0 | 0.00 | 0.17 | 0.08 | 82 | 1012.1 |
| 20260507142325 | 52 | 355 | 0.0 | 0.0 | 0.00 | 0.17 | 0.08 | 81 | 1012.1 |
| 20260507142223 | 52 | 355 | 0.0 | 0.0 | 0.00 | 0.17 | 0.08 | 81 | 1012.2 |
| 20260507142120 | 52 | 259 | 0.0 | 0.0 | 0.00 | 0.18 | 0.08 | 81 | 1012.1 |
| 20260507142018 | 52 | 259 | 0.0 | 0.0 | 0.00 | 0.18 | 0.08 | 81 | 1012.1 |
| 20260507141913 | 52 | 133 | 0.0 | 0.0 | 0.00 | 0.18 | 0.08 | 82 | 1012.1 |
| 20260507141806 | 52 | 185 | 0.0 | 0.0 | 0.00 | 0.18 | 0.08 | 82 | 1012.1 |
| 20260507141223 | 52 | 46 | 0.0 | 0.0 | 0.00 | 0.19 | 0.08 | 80 | 1012.2 |
| 20260507141120 | 52 | 46 | 0.0 | 0.0 | 0.00 | 0.19 | 0.08 | 79 | 1012.2 |
| 20260507141018 | 52 | 46 | 0.0 | 0.0 | 0.00 | 0.19 | 0.08 | 78 | 1012.1 |
| 20260507140653 | 52 | 46 | 0.0 | 0.0 | 0.00 | 0.19 | 0.08 | 78 | 1012.0 |
| 20260507140545 | 52 | 46 | 0.0 | 0.0 | 0.00 | 0.19 | 0.08 | 78 | 1012.1 |
| 20260507140441 | 52 | 46 | 0.0 | 0.0 | 0.00 | 0.19 | 0.08 | 76 | 1012.0 |
| 20260507140114 | 52 | 18 | 0.0 | 0.0 | 0.00 | 0.19 | 0.08 | 75 | 1012.0 |
| 20260507140009 | 52 | 18 | 0.0 | 0.0 | 0.00 | 0.19 | 0.08 | 77 | 1012.1 |
| 20260507135905 | 52 | 18 | 0.0 | 0.0 | 0.00 | 0.19 | 0.08 | 77 | 1012.1 |
| 20260507135758 | 52 | 18 | 0.0 | 0.0 | 0.00 | 0.19 | 0.08 | 76 | 1012.2 |
| 20260507135654 | 52 | 18 | 0.0 | 0.0 | 0.00 | 0.19 | 0.08 | 76 | 1012.2 |
| 20260507135109 | 52 | 63 | 0.0 | 0.0 | 0.00 | 0.20 | 0.08 | 77 | 1012.3 |
| 20260507135005 | 52 | 63 | 0.0 | 0.0 | 0.00 | 0.20 | 0.08 | 78 | 1012.3 |
| 20260507134859 | 52 | 54 | 0.0 | 2.0 | 0.00 | 0.20 | 0.08 | 78 | 1012.2 |
| 20260507134534 | 52 | 100 | 0.0 | 0.0 | 0.00 | 0.20 | 0.08 | 82 | 1012.3 |
| 20260507133948 | 52 | 33 | 0.0 | 0.0 | 0.00 | 0.22 | 0.08 | 83 | 1012.3 |
| 20260507133842 | 52 | 33 | 0.0 | 0.0 | 0.00 | 0.22 | 0.08 | 83 | 1012.3 |
| 20260507133735 | 52 | 33 | 0.0 | 0.0 | 0.00 | 0.23 | 0.08 | 83 | 1012.3 |
| 20260507133631 | 52 | 33 | 0.0 | 0.0 | 0.00 | 0.23 | 0.08 | 83 | 1012.3 |
| 20260507133528 | 52 | 33 | 0.0 | 0.0 | 0.00 | 0.23 | 0.08 | 82 | 1012.3 |
| 20260507133422 | 52 | 33 | 0.0 | 0.0 | 0.00 | 0.23 | 0.08 | 82 | 1012.3 |
| 20260507133319 | 52 | 33 | 0.0 | 0.0 | 0.00 | 0.23 | 0.08 | 80 | 1012.4 |
| 20260507133214 | 52 | 33 | 0.0 | 0.0 | 0.00 | 0.23 | 0.08 | 79 | 1012.4 |
| 20260507133109 | 52 | 33 | 0.0 | 0.0 | 0.00 | 0.23 | 0.08 | 79 | 1012.4 |
| 20260507133001 | 52 | 33 | 0.0 | 0.0 | 0.00 | 0.23 | 0.08 | 79 | 1012.4 |
| 20260507132640 | 52 | 33 | 0.0 | 0.0 | 0.00 | 0.24 | 0.08 | 79 | 1012.5 |
| 20260507132312 | 52 | 39 | 0.0 | 0.0 | 0.00 | 0.24 | 0.08 | 77 | 1012.5 |
| 20260507132205 | 52 | 39 | 0.0 | 0.0 | 0.00 | 0.24 | 0.08 | 77 | 1012.4 |
| 20260507132059 | 52 | 39 | 0.0 | 0.0 | 0.00 | 0.24 | 0.08 | 77 | 1012.4 |
| 20260507131957 | 52 | 39 | 0.0 | 0.0 | 0.00 | 0.25 | 0.08 | 77 | 1012.4 |
| 20260507131855 | 52 | 39 | 0.0 | 0.0 | 0.00 | 0.25 | 0.08 | 77 | 1012.4 |
| 20260507131750 | 52 | 39 | 0.0 | 0.0 | 0.00 | 0.26 | 0.08 | 76 | 1012.4 |
| 20260507131647 | 52 | 39 | 0.0 | 0.0 | 0.00 | 0.26 | 0.08 | 76 | 1012.4 |
| 20260507131544 | 52 | 39 | 0.0 | 1.0 | 0.00 | 0.26 | 0.08 | 76 | 1012.4 |
| 20260507131440 | 52 | 39 | 0.0 | 1.0 | 0.00 | 0.26 | 0.08 | 76 | 1012.5 |
| 20260507131117 | 52 | 331 | 0.0 | 2.0 | 0.00 | 0.29 | 0.08 | 78 | 1012.4 |
| 20260507131011 | 52 | 331 | 0.0 | 2.0 | 0.00 | 0.30 | 0.08 | 76 | 1012.4 |
| 20260507130907 | 52 | 331 | 0.0 | 2.0 | 0.00 | 0.30 | 0.08 | 75 | 1012.4 |
| 20260507130805 | 52 | 17 | 0.0 | 2.0 | 0.00 | 0.30 | 0.08 | 75 | 1012.3 |
| 20260507130701 | 52 | 42 | 0.0 | 2.0 | 0.00 | 0.30 | 0.08 | 76 | 1012.3 |
| 20260507130557 | 52 | 109 | 0.0 | 2.0 | 0.00 | 0.31 | 0.08 | 76 | 1012.3 |
| 20260507130455 | 52 | 109 | 0.0 | 2.0 | 0.00 | 0.31 | 0.08 | 75 | 1012.2 |
| 20260507130352 | 52 | 135 | 0.0 | 2.0 | 0.00 | 0.31 | 0.08 | 75 | 1012.2 |
| 20260507130248 | 52 | 158 | 0.0 | 2.0 | 0.00 | 0.31 | 0.08 | 75 | 1012.2 |
| 20260507130141 | 52 | 65 | 0.0 | 2.0 | 0.00 | 0.31 | 0.08 | 76 | 1012.2 |
| 20260507130038 | 52 | 0 | 0.0 | 1.0 | 0.00 | 0.32 | 0.08 | 77 | 1012.2 |
| 20260507125936 | 52 | 34 | 0.0 | 1.0 | 0.00 | 0.32 | 0.08 | 79 | 1012.2 |
| 20260507125611 | 52 | 351 | 0.0 | 0.0 | 0.00 | 0.35 | 0.08 | 80 | 1012.2 |
| 20260507125506 | 52 | 351 | 0.0 | 0.0 | 0.00 | 0.36 | 0.08 | 81 | 1012.1 |
| 20260507125403 | 52 | 351 | 0.0 | 1.0 | 0.00 | 0.36 | 0.08 | 81 | 1012.1 |
| 20260507125256 | 52 | 351 | 0.0 | 1.0 | 0.00 | 0.37 | 0.08 | 82 | 1012.1 |
| 20260507125152 | 52 | 320 | 0.0 | 1.0 | 0.00 | 0.37 | 0.08 | 81 | 1012.1 |
| 20260507124828 | 52 | 16 | 0.0 | 2.0 | 0.00 | 0.39 | 0.08 | 80 | 1012.2 |
| 20260507124722 | 52 | 16 | 0.0 | 2.0 | 0.00 | 0.39 | 0.08 | 80 | 1012.2 |
| 20260507124615 | 52 | 16 | 0.0 | 2.0 | 0.00 | 0.40 | 0.08 | 77 | 1012.2 |
| 20260507124252 | 52 | 62 | 0.0 | 2.0 | 0.00 | 0.40 | 0.08 | 76 | 1012.2 |
| 20260507124144 | 52 | 62 | 0.0 | 2.0 | 0.00 | 0.40 | 0.08 | 76 | 1012.3 |
| 20260507124038 | 52 | 62 | 0.0 | 3.0 | 0.00 | 0.40 | 0.08 | 77 | 1012.2 |
| 20260507123934 | 52 | 30 | 0.0 | 3.0 | 0.00 | 0.41 | 0.08 | 76 | 1012.2 |
| 20260507123828 | 52 | 301 | 0.0 | 3.0 | 0.00 | 0.41 | 0.08 | 76 | 1012.3 |
| 20260507123726 | 52 | 301 | 0.0 | 3.0 | 0.00 | 0.41 | 0.08 | 77 | 1012.3 |
| 20260507123623 | 52 | 22 | 0.0 | 3.0 | 0.00 | 0.41 | 0.08 | 77 | 1012.2 |
| 20260507123519 | 52 | 36 | 0.0 | 3.0 | 0.00 | 0.41 | 0.08 | 76 | 1012.1 |
| 20260507123418 | 52 | 36 | 0.0 | 3.0 | 0.00 | 0.41 | 0.08 | 77 | 1012.0 |
| 20260507123312 | 52 | 315 | 0.0 | 3.0 | 0.00 | 0.41 | 0.08 | 79 | 1012.0 |
| 20260507123208 | 52 | 24 | 0.0 | 3.0 | 0.00 | 0.41 | 0.08 | 79 | 1012.0 |
| 20260507123105 | 52 | 71 | 0.0 | 3.0 | 0.00 | 0.41 | 0.08 | 80 | 1012.0 |
| 20260507122958 | 52 | 36 | 0.0 | 3.0 | 0.00 | 0.41 | 0.08 | 81 | 1011.9 |
| 20260507122853 | 52 | 36 | 0.0 | 3.0 | 0.00 | 0.41 | 0.08 | 81 | 1011.9 |
| 20260507122747 | 52 | 101 | 0.0 | 3.0 | 0.00 | 0.41 | 0.08 | 81 | 1011.9 |
| 20260507122643 | 52 | 5 | 0.0 | 3.0 | 0.00 | 0.41 | 0.08 | 82 | 1012.0 |
| 20260507122539 | 52 | 10 | 0.0 | 3.0 | 0.00 | 0.41 | 0.08 | 83 | 1012.0 |
| 20260507122437 | 53 | 5 | 0.0 | 3.0 | 0.00 | 0.41 | 0.08 | 84 | 1012.0 |
| 20260507122332 | 53 | 33 | 0.0 | 3.0 | 0.00 | 0.41 | 0.08 | 84 | 1012.0 |
| 20260507122227 | 52 | 355 | 0.0 | 3.0 | 0.00 | 0.41 | 0.08 | 84 | 1012.0 |
| 20260507122120 | 52 | 355 | 0.0 | 3.0 | 0.00 | 0.41 | 0.08 | 82 | 1012.0 |
| 20260507122015 | 53 | 338 | 0.0 | 3.0 | 0.00 | 0.41 | 0.08 | 81 | 1012.0 |
| 20260507121909 | 52 | 339 | 0.0 | 3.0 | 0.00 | 0.41 | 0.08 | 82 | 1012.0 |
| 20260507121802 | 53 | 355 | 0.0 | 3.0 | 0.00 | 0.41 | 0.08 | 83 | 1011.9 |
| 20260507121659 | 53 | 0 | 0.0 | 3.0 | 0.00 | 0.41 | 0.08 | 82 | 1011.9 |
| 20260507121331 | 53 | 336 | 0.0 | 3.0 | 0.00 | 0.41 | 0.08 | 83 | 1012.0 |
| 20260507121229 | 53 | 64 | 0.0 | 3.0 | 0.00 | 0.41 | 0.08 | 83 | 1012.0 |
| 20260507121126 | 53 | 37 | 0.0 | 3.0 | 0.00 | 0.41 | 0.08 | 83 | 1012.0 |
| 20260507121023 | 53 | 17 | 0.0 | 2.0 | 0.00 | 0.41 | 0.08 | 84 | 1012.0 |
| 20260507120917 | 53 | 17 | 0.0 | 2.0 | 0.00 | 0.41 | 0.08 | 84 | 1012.0 |
| 20260507120552 | 53 | 49 | 0.0 | 2.0 | 0.00 | 0.41 | 0.08 | 86 | 1012.0 |
| 20260507120447 | 53 | 49 | 0.0 | 2.0 | 0.00 | 0.41 | 0.08 | 86 | 1012.0 |
| 20260507120340 | 53 | 0 | 0.0 | 2.0 | 0.00 | 0.42 | 0.08 | 87 | 1012.0 |
| 20260507120010 | 53 | 51 | 0.0 | 1.0 | 0.00 | 0.42 | 0.08 | 88 | 1011.9 |
| 20260507115909 | 53 | 29 | 0.0 | 1.0 | 0.00 | 0.42 | 0.08 | 88 | 1011.9 |
| 20260507115804 | 53 | 29 | 0.0 | 1.0 | 0.00 | 0.43 | 0.08 | 88 | 1011.9 |
| 20260507115701 | 53 | 29 | 0.0 | 1.0 | 0.00 | 0.43 | 0.08 | 88 | 1011.9 |
| 20260507115558 | 53 | 5 | 0.0 | 1.0 | 0.00 | 0.43 | 0.08 | 88 | 1011.9 |
| 20260507115455 | 53 | 0 | 0.0 | 1.0 | 0.00 | 0.43 | 0.08 | 88 | 1011.9 |
| 20260507115349 | 53 | 0 | 0.0 | 1.0 | 0.00 | 0.43 | 0.08 | 87 | 1011.8 |
| 20260507115247 | 53 | 32 | 0.0 | 0.0 | 0.00 | 0.43 | 0.08 | 87 | 1011.9 |
| 20260507115144 | 53 | 32 | 0.0 | 0.0 | 0.00 | 0.43 | 0.08 | 87 | 1012.0 |
| 20260507114820 | 53 | 32 | 0.0 | 0.0 | 0.00 | 0.44 | 0.08 | 87 | 1012.1 |
| 20260507114228 | 53 | 32 | 0.0 | 0.0 | 0.00 | 0.44 | 0.08 | 88 | 1012.0 |
| 20260507114125 | 53 | 32 | 0.0 | 1.0 | 0.00 | 0.45 | 0.08 | 88 | 1011.9 |
| 20260507114020 | 53 | 32 | 0.0 | 1.0 | 0.00 | 0.45 | 0.08 | 89 | 1011.9 |
| 20260507113701 | 53 | 11 | 0.0 | 1.0 | 0.00 | 0.45 | 0.08 | 89 | 1011.7 |
| 20260507113554 | 53 | 30 | 0.0 | 1.0 | 0.00 | 0.45 | 0.08 | 89 | 1011.7 |
| 20260507112750 | 53 | 197 | 0.0 | 1.0 | 0.00 | 0.46 | 0.08 | 91 | 1011.5 |
| 20260507112645 | 53 | 333 | 0.0 | 0.0 | 0.00 | 0.46 | 0.08 | 91 | 1011.5 |
| 20260507112322 | 53 | 36 | 0.0 | 0.0 | 0.00 | 0.46 | 0.08 | 91 | 1011.5 |
| 20260507112215 | 53 | 36 | 0.0 | 2.0 | 0.00 | 0.46 | 0.08 | 91 | 1011.5 |
| 20260507112108 | 53 | 65 | 0.0 | 1.0 | 0.00 | 0.46 | 0.08 | 91 | 1011.4 |
| 20260507112005 | 53 | 20 | 0.0 | 0.0 | 0.00 | 0.46 | 0.08 | 91 | 1011.3 |
| 20260507111857 | 53 | 20 | 0.0 | 0.0 | 0.00 | 0.46 | 0.08 | 91 | 1011.3 |
| 20260507111755 | 52 | 20 | 0.0 | 0.0 | 0.00 | 0.46 | 0.08 | 91 | 1011.2 |
| 20260507111650 | 52 | 20 | 0.0 | 0.0 | 0.00 | 0.46 | 0.08 | 91 | 1011.3 |
| 20260507111328 | 52 | 20 | 0.0 | 0.0 | 0.00 | 0.46 | 0.08 | 91 | 1011.4 |
| 20260507111221 | 52 | 20 | 0.0 | 0.0 | 0.00 | 0.46 | 0.08 | 91 | 1011.3 |
| 20260507111119 | 52 | 20 | 0.0 | 0.0 | 0.00 | 0.46 | 0.08 | 91 | 1011.3 |
| 20260507111015 | 52 | 20 | 0.0 | 0.0 | 0.00 | 0.46 | 0.08 | 91 | 1011.3 |
| 20260507110908 | 52 | 20 | 0.0 | 0.0 | 0.00 | 0.46 | 0.08 | 91 | 1011.3 |
| 20260507110543 | 52 | 20 | 0.0 | 0.0 | 0.00 | 0.46 | 0.08 | 91 | 1011.4 |
| 20260507110437 | 52 | 20 | 0.0 | 0.0 | 0.00 | 0.46 | 0.08 | 91 | 1011.4 |
| 20260507110333 | 52 | 20 | 0.0 | 0.0 | 0.00 | 0.46 | 0.08 | 91 | 1011.4 |
| 20260507110010 | 52 | 20 | 0.0 | 0.0 | 0.00 | 0.46 | 0.08 | 91 | 1011.4 |
| 20260507105904 | 52 | 20 | 0.0 | 0.0 | 0.00 | 0.46 | 0.08 | 91 | 1011.2 |
| 20260507105801 | 52 | 20 | 0.0 | 0.0 | 0.00 | 0.46 | 0.08 | 91 | 1011.3 |
| 20260507105658 | 52 | 20 | 0.0 | 0.0 | 0.00 | 0.46 | 0.08 | 91 | 1011.2 |
| 20260507105552 | 52 | 20 | 0.0 | 0.0 | 0.00 | 0.46 | 0.08 | 91 | 1011.3 |
| 20260507105450 | 52 | 20 | 0.0 | 0.0 | 0.00 | 0.46 | 0.08 | 91 | 1011.3 |
| 20260507105346 | 52 | 20 | 0.0 | 0.0 | 0.00 | 0.46 | 0.08 | 91 | 1011.3 |
| 20260507105024 | 52 | 9 | 0.0 | 0.0 | 0.00 | 0.46 | 0.08 | 91 | 1011.2 |
| 20260507104654 | 52 | 9 | 0.0 | 0.0 | 0.00 | 0.46 | 0.08 | 91 | 1011.4 |
| 20260507104547 | 52 | 9 | 0.0 | 0.0 | 0.00 | 0.46 | 0.08 | 91 | 1011.4 |
| 20260507104444 | 52 | 9 | 0.0 | 0.0 | 0.00 | 0.46 | 0.08 | 91 | 1011.4 |
| 20260507104341 | 52 | 9 | 0.0 | 0.0 | 0.00 | 0.46 | 0.08 | 91 | 1011.4 |
| 20260507104237 | 52 | 9 | 0.0 | 0.0 | 0.00 | 0.46 | 0.08 | 91 | 1011.3 |
| 20260507103915 | 52 | 9 | 0.0 | 0.0 | 0.00 | 0.46 | 0.08 | 91 | 1011.3 |
| 20260507103551 | 52 | 9 | 0.0 | 0.0 | 0.00 | 0.46 | 0.08 | 91 | 1011.2 |
| 20260507103449 | 52 | 9 | 0.0 | 0.0 | 0.00 | 0.46 | 0.08 | 91 | 1011.2 |
| 20260507103344 | 52 | 9 | 0.0 | 0.0 | 0.00 | 0.46 | 0.08 | 91 | 1011.2 |
| 20260507103240 | 52 | 9 | 0.0 | 0.0 | 0.00 | 0.46 | 0.08 | 91 | 1011.2 |
| 20260507103137 | 52 | 9 | 0.0 | 0.0 | 0.00 | 0.46 | 0.08 | 91 | 1011.1 |
| 20260507103034 | 52 | 9 | 0.0 | 0.0 | 0.00 | 0.46 | 0.08 | 91 | 1011.1 |
| 20260507102931 | 52 | 9 | 0.0 | 0.0 | 0.00 | 0.46 | 0.08 | 91 | 1011.0 |
| 20260507102825 | 52 | 9 | 0.0 | 0.0 | 0.00 | 0.46 | 0.08 | 91 | 1011.0 |
| 20260507102501 | 52 | 9 | 0.0 | 0.0 | 0.00 | 0.46 | 0.08 | 91 | 1011.2 |
| 20260507102139 | 52 | 9 | 0.0 | 0.0 | 0.00 | 0.46 | 0.08 | 91 | 1011.1 |
| 20260507102033 | 52 | 9 | 0.0 | 0.0 | 0.00 | 0.46 | 0.08 | 91 | 1011.1 |
| 20260507101931 | 52 | 9 | 0.0 | 0.0 | 0.00 | 0.46 | 0.08 | 91 | 1011.1 |
| 20260507101829 | 52 | 9 | 0.0 | 0.0 | 0.00 | 0.46 | 0.08 | 91 | 1011.1 |
| 20260507101726 | 52 | 9 | 0.0 | 0.0 | 0.00 | 0.46 | 0.08 | 91 | 1011.1 |
| 20260507101401 | 52 | 9 | 0.0 | 0.0 | 0.00 | 0.46 | 0.08 | 91 | 1011.0 |
| 20260507101255 | 52 | 9 | 0.0 | 0.0 | 0.00 | 0.46 | 0.08 | 91 | 1011.0 |
| 20260507101149 | 52 | 9 | 0.0 | 0.0 | 0.00 | 0.46 | 0.08 | 91 | 1011.0 |
| 20260507100824 | 52 | 9 | 0.0 | 0.0 | 0.00 | 0.46 | 0.08 | 91 | 1011.0 |
| 20260507100719 | 52 | 9 | 0.0 | 0.0 | 0.00 | 0.46 | 0.08 | 91 | 1011.0 |
| 20260507100617 | 52 | 9 | 0.0 | 0.0 | 0.00 | 0.46 | 0.08 | 91 | 1011.0 |
| 20260507100515 | 52 | 9 | 0.0 | 0.0 | 0.00 | 0.46 | 0.08 | 91 | 1011.0 |
| 20260507100408 | 52 | 9 | 0.0 | 0.0 | 0.00 | 0.46 | 0.08 | 91 | 1011.0 |
| 20260507100303 | 52 | 9 | 0.0 | 0.0 | 0.00 | 0.46 | 0.08 | 91 | 1011.0 |
| 20260507100200 | 52 | 9 | 0.0 | 0.0 | 0.00 | 0.46 | 0.08 | 92 | 1010.9 |
| 20260507100053 | 52 | 9 | 0.0 | 0.0 | 0.00 | 0.46 | 0.08 | 92 | 1010.9 |
| 20260507095948 | 52 | 9 | 0.0 | 0.0 | 0.00 | 0.46 | 0.08 | 92 | 1010.9 |
| 20260507095845 | 52 | 9 | 0.0 | 0.0 | 0.00 | 0.46 | 0.08 | 92 | 1010.9 |
| 20260507095739 | 52 | 9 | 0.0 | 0.0 | 0.00 | 0.46 | 0.08 | 92 | 1010.9 |
| 20260507095634 | 52 | 9 | 0.0 | 0.0 | 0.00 | 0.46 | 0.08 | 92 | 1010.8 |
| 20260507095529 | 52 | 9 | 0.0 | 0.0 | 0.00 | 0.46 | 0.08 | 92 | 1010.9 |
| 20260507095426 | 52 | 9 | 0.0 | 0.0 | 0.00 | 0.46 | 0.08 | 92 | 1010.9 |
| 20260507095322 | 52 | 9 | 0.0 | 0.0 | 0.00 | 0.46 | 0.08 | 92 | 1010.9 |
| 20260507095220 | 52 | 9 | 0.0 | 0.0 | 0.00 | 0.46 | 0.08 | 92 | 1011.0 |
| 20260507095118 | 52 | 9 | 0.0 | 0.0 | 0.00 | 0.46 | 0.08 | 92 | 1010.9 |
| 20260507095014 | 52 | 9 | 0.0 | 0.0 | 0.00 | 0.46 | 0.08 | 92 | 1010.9 |
| 20260507094912 | 52 | 9 | 0.0 | 0.0 | 0.00 | 0.46 | 0.08 | 92 | 1010.8 |
| 20260507094806 | 52 | 9 | 0.0 | 0.0 | 0.00 | 0.46 | 0.08 | 92 | 1010.7 |
| 20260507094219 | 52 | 9 | 0.0 | 0.0 | 0.00 | 0.46 | 0.08 | 92 | 1010.7 |
| 20260507094113 | 52 | 45 | 0.0 | 0.0 | 0.00 | 0.46 | 0.08 | 92 | 1010.7 |
| 20260507094005 | 52 | 45 | 0.0 | 0.0 | 0.00 | 0.46 | 0.08 | 92 | 1010.7 |
| 20260507093205 | 52 | 45 | 0.0 | 0.0 | 0.00 | 0.46 | 0.08 | 92 | 1010.9 |
| 20260507093101 | 52 | 45 | 0.0 | 0.0 | 0.00 | 0.46 | 0.08 | 92 | 1010.8 |
| 20260507092959 | 52 | 45 | 0.0 | 0.0 | 0.00 | 0.46 | 0.08 | 92 | 1010.7 |
| 20260507092852 | 52 | 45 | 0.0 | 0.0 | 0.00 | 0.46 | 0.08 | 92 | 1010.7 |
| 20260507092745 | 52 | 45 | 0.0 | 0.0 | 0.00 | 0.46 | 0.08 | 92 | 1010.8 |
| 20260507092639 | 52 | 45 | 0.0 | 0.0 | 0.00 | 0.46 | 0.08 | 92 | 1010.8 |
| 20260507092532 | 52 | 45 | 0.0 | 0.0 | 0.00 | 0.46 | 0.08 | 92 | 1010.8 |
| 20260507092207 | 52 | 45 | 0.0 | 0.0 | 0.00 | 0.46 | 0.08 | 92 | 1010.9 |
| 20260507092102 | 52 | 45 | 0.0 | 0.0 | 0.00 | 0.46 | 0.08 | 92 | 1010.8 |
| 20260507091958 | 52 | 45 | 0.0 | 0.0 | 0.00 | 0.46 | 0.08 | 92 | 1010.7 |
| 20260507091854 | 52 | 45 | 0.0 | 0.0 | 0.00 | 0.46 | 0.08 | 92 | 1010.7 |
| 20260507091749 | 52 | 53 | 0.0 | 0.0 | 0.00 | 0.46 | 0.08 | 92 | 1010.7 |
| 20260507091646 | 52 | 17 | 0.0 | 0.0 | 0.00 | 0.46 | 0.08 | 92 | 1010.7 |
| 20260507091539 | 52 | 17 | 0.0 | 0.0 | 0.00 | 0.46 | 0.08 | 92 | 1010.7 |
| 20260507091432 | 52 | 17 | 0.0 | 1.0 | 0.00 | 0.46 | 0.08 | 92 | 1010.7 |
| 20260507091328 | 52 | 17 | 0.0 | 1.0 | 0.00 | 0.46 | 0.08 | 92 | 1010.6 |
| 20260507091002 | 52 | 34 | 0.0 | 0.0 | 0.00 | 0.46 | 0.08 | 92 | 1010.4 |
| 20260507090857 | 52 | 34 | 0.0 | 0.0 | 0.00 | 0.46 | 0.08 | 92 | 1010.5 |
| 20260507090754 | 52 | 34 | 0.0 | 0.0 | 0.00 | 0.46 | 0.08 | 93 | 1010.5 |
| 20260507090433 | 52 | 34 | 0.0 | 0.0 | 0.00 | 0.46 | 0.08 | 92 | 1010.3 |
| 20260507090331 | 52 | 34 | 0.0 | 0.0 | 0.00 | 0.46 | 0.08 | 93 | 1010.4 |
| 20260507090226 | 52 | 34 | 0.0 | 0.0 | 0.00 | 0.46 | 0.08 | 93 | 1010.4 |
| 20260507090121 | 53 | 34 | 0.0 | 0.0 | 0.00 | 0.46 | 0.08 | 93 | 1010.4 |
| 20260507090016 | 52 | 34 | 0.0 | 0.0 | 0.00 | 0.46 | 0.08 | 93 | 1010.4 |
| 20260507085912 | 53 | 34 | 0.0 | 0.0 | 0.00 | 0.46 | 0.08 | 93 | 1010.3 |
| 20260507085810 | 53 | 39 | 0.0 | 0.0 | 0.00 | 0.46 | 0.08 | 93 | 1010.3 |
| 20260507085707 | 53 | 39 | 0.0 | 0.0 | 0.00 | 0.46 | 0.08 | 93 | 1010.3 |
| 20260507085603 | 53 | 35 | 0.0 | 0.0 | 0.00 | 0.46 | 0.08 | 93 | 1010.3 |
| 20260507085501 | 53 | 35 | 0.0 | 0.0 | 0.00 | 0.46 | 0.08 | 93 | 1010.3 |
| 20260507084656 | 53 | 35 | 0.0 | 0.0 | 0.00 | 0.46 | 0.08 | 93 | 1010.6 |
| 20260507084553 | 53 | 35 | 0.0 | 0.0 | 0.00 | 0.46 | 0.08 | 93 | 1010.6 |
| 20260507084450 | 53 | 35 | 0.0 | 1.0 | 0.00 | 0.46 | 0.08 | 93 | 1010.6 |
| 20260507084122 | 53 | 36 | 0.0 | 0.0 | 0.00 | 0.46 | 0.08 | 93 | 1010.6 |
| 20260507084016 | 53 | 36 | 0.0 | 0.0 | 0.00 | 0.46 | 0.08 | 93 | 1010.6 |
| 20260507083912 | 53 | 36 | 0.0 | 0.0 | 0.00 | 0.46 | 0.08 | 93 | 1010.6 |
| 20260507083805 | 53 | 36 | 0.0 | 0.0 | 0.00 | 0.46 | 0.08 | 93 | 1010.7 |
| 20260507083703 | 53 | 36 | 0.0 | 0.0 | 0.00 | 0.46 | 0.08 | 93 | 1010.6 |
| 20260507083558 | 53 | 36 | 0.0 | 0.0 | 0.00 | 0.46 | 0.08 | 93 | 1010.6 |
| 20260507083453 | 53 | 36 | 0.0 | 0.0 | 0.00 | 0.46 | 0.08 | 93 | 1010.6 |
| 20260507083345 | 53 | 36 | 0.0 | 0.0 | 0.00 | 0.46 | 0.08 | 93 | 1010.5 |
| 20260507083242 | 53 | 36 | 0.0 | 0.0 | 0.00 | 0.46 | 0.08 | 93 | 1010.5 |
| 20260507083135 | 53 | 36 | 0.0 | 0.0 | 0.00 | 0.46 | 0.08 | 93 | 1010.4 |
| 20260507083031 | 53 | 36 | 0.0 | 0.0 | 0.00 | 0.46 | 0.08 | 93 | 1010.4 |
| 20260507082928 | 53 | 36 | 0.0 | 0.0 | 0.00 | 0.46 | 0.08 | 93 | 1010.3 |
| 20260507082820 | 53 | 36 | 0.0 | 0.0 | 0.00 | 0.46 | 0.08 | 93 | 1010.4 |
| 20260507082718 | 53 | 36 | 0.0 | 0.0 | 0.00 | 0.46 | 0.08 | 93 | 1010.5 |
| 20260507082355 | 53 | 36 | 0.0 | 0.0 | 0.00 | 0.46 | 0.08 | 93 | 1010.6 |
| 20260507082248 | 53 | 36 | 0.0 | 0.0 | 0.00 | 0.46 | 0.08 | 93 | 1010.6 |
| 20260507082145 | 53 | 27 | 0.0 | 0.0 | 0.00 | 0.46 | 0.08 | 93 | 1010.6 |
| 20260507081819 | 53 | 27 | 0.0 | 0.0 | 0.00 | 0.46 | 0.08 | 93 | 1010.5 |
| 20260507081713 | 53 | 27 | 0.0 | 0.0 | 0.00 | 0.46 | 0.08 | 93 | 1010.5 |
| 20260507081611 | 53 | 27 | 0.0 | 0.0 | 0.00 | 0.46 | 0.08 | 93 | 1010.5 |
| 20260507081502 | 53 | 27 | 0.0 | 0.0 | 0.00 | 0.46 | 0.08 | 93 | 1010.5 |
| 20260507081400 | 53 | 27 | 0.0 | 0.0 | 0.00 | 0.46 | 0.08 | 93 | 1010.5 |
| 20260507081252 | 53 | 27 | 0.0 | 0.0 | 0.00 | 0.46 | 0.08 | 93 | 1010.4 |
| 20260507080705 | 53 | 27 | 0.0 | 0.0 | 0.00 | 0.46 | 0.08 | 93 | 1010.4 |
| 20260507080600 | 53 | 54 | 0.0 | 0.0 | 0.00 | 0.46 | 0.08 | 93 | 1010.3 |
| 20260507080454 | 53 | 126 | 0.0 | 0.0 | 0.00 | 0.46 | 0.08 | 93 | 1010.3 |
| 20260507080127 | 53 | 28 | 0.0 | 0.0 | 0.00 | 0.46 | 0.08 | 93 | 1010.5 |
| 20260507080020 | 53 | 28 | 0.0 | 0.0 | 0.00 | 0.46 | 0.08 | 93 | 1010.5 |
| 20260507075435 | 53 | 28 | 0.0 | 0.0 | 0.00 | 0.46 | 0.08 | 92 | 1010.1 |
| 20260507075332 | 53 | 71 | 0.0 | 0.0 | 0.00 | 0.46 | 0.08 | 92 | 1010.0 |
| 20260507075225 | 53 | 71 | 0.0 | 0.0 | 0.00 | 0.46 | 0.08 | 92 | 1010.0 |
| 20260507075124 | 53 | 71 | 0.0 | 0.0 | 0.00 | 0.46 | 0.08 | 92 | 1010.0 |
| 20260507074751 | 53 | 71 | 0.0 | 0.0 | 0.00 | 0.46 | 0.08 | 92 | 1009.9 |
| 20260507074424 | 53 | 71 | 0.0 | 0.0 | 0.00 | 0.46 | 0.08 | 92 | 1009.9 |
| 20260507074322 | 53 | 103 | 0.0 | 0.0 | 0.00 | 0.46 | 0.08 | 92 | 1009.9 |
| 20260507074215 | 53 | 103 | 0.0 | 0.0 | 0.00 | 0.46 | 0.08 | 92 | 1009.9 |
| 20260507074108 | 53 | 103 | 0.0 | 0.0 | 0.00 | 0.46 | 0.08 | 92 | 1009.8 |
| 20260507074004 | 53 | 103 | 0.0 | 0.0 | 0.00 | 0.46 | 0.08 | 92 | 1009.8 |
| 20260507073859 | 53 | 103 | 0.0 | 0.0 | 0.00 | 0.46 | 0.08 | 92 | 1009.9 |
| 20260507073753 | 53 | 103 | 0.0 | 0.0 | 0.00 | 0.46 | 0.08 | 92 | 1009.9 |
| 20260507073650 | 53 | 103 | 0.0 | 0.0 | 0.00 | 0.46 | 0.08 | 93 | 1010.0 |
| 20260507073545 | 53 | 103 | 0.0 | 0.0 | 0.00 | 0.46 | 0.08 | 93 | 1010.0 |
| 20260507073215 | 53 | 319 | 0.0 | 0.0 | 0.00 | 0.46 | 0.08 | 93 | 1010.0 |
| 20260507073110 | 53 | 319 | 0.0 | 0.0 | 0.00 | 0.46 | 0.08 | 93 | 1010.0 |
| 20260507073004 | 53 | 319 | 0.0 | 0.0 | 0.00 | 0.46 | 0.08 | 93 | 1010.0 |
| 20260507072640 | 53 | 319 | 0.0 | 5.0 | 0.00 | 0.46 | 0.08 | 93 | 1010.0 |
| 20260507072536 | 53 | 0 | 0.0 | 5.0 | 0.00 | 0.46 | 0.08 | 93 | 1010.0 |
| 20260507071955 | 53 | 51 | 0.0 | 6.0 | 0.00 | 0.46 | 0.08 | 93 | 1009.9 |
| 20260507071852 | 54 | 51 | 0.0 | 6.0 | 0.00 | 0.46 | 0.08 | 93 | 1009.9 |
| 20260507071744 | 54 | 51 | 0.0 | 6.0 | 0.00 | 0.46 | 0.08 | 93 | 1009.8 |
| 20260507071420 | 54 | 290 | 0.0 | 6.0 | 0.00 | 0.46 | 0.08 | 93 | 1009.7 |
| 20260507071316 | 54 | 290 | 0.0 | 6.0 | 0.00 | 0.46 | 0.08 | 93 | 1009.8 |
| 20260507071208 | 54 | 290 | 0.0 | 6.0 | 0.00 | 0.46 | 0.08 | 93 | 1009.8 |
| 20260507071101 | 54 | 330 | 0.0 | 6.0 | 0.00 | 0.46 | 0.08 | 93 | 1009.8 |
| 20260507070958 | 54 | 56 | 0.0 | 6.0 | 0.00 | 0.46 | 0.08 | 93 | 1009.8 |
| 20260507070851 | 54 | 61 | 0.0 | 6.0 | 0.00 | 0.46 | 0.08 | 93 | 1009.8 |
| 20260507070745 | 54 | 63 | 0.0 | 6.0 | 0.00 | 0.46 | 0.08 | 93 | 1009.9 |
| 20260507070643 | 54 | 228 | 0.0 | 6.0 | 0.00 | 0.46 | 0.08 | 93 | 1009.9 |
| 20260507070055 | 54 | 34 | 0.0 | 3.0 | 0.00 | 0.46 | 0.08 | 93 | 1009.7 |
| 20260507065952 | 54 | 34 | 0.0 | 3.0 | 0.00 | 0.46 | 0.08 | 93 | 1009.8 |
| 20260507065848 | 54 | 17 | 0.0 | 3.0 | 0.00 | 0.46 | 0.08 | 93 | 1009.8 |
| 20260507065745 | 54 | 17 | 0.0 | 3.0 | 0.00 | 0.46 | 0.08 | 93 | 1009.8 |
| 20260507065639 | 54 | 17 | 0.0 | 3.0 | 0.00 | 0.46 | 0.08 | 93 | 1009.8 |
| 20260507065535 | 54 | 316 | 0.0 | 3.0 | 0.00 | 0.46 | 0.08 | 93 | 1009.8 |
| 20260507065432 | 54 | 316 | 0.0 | 3.0 | 0.00 | 0.46 | 0.08 | 93 | 1009.8 |
| 20260507065105 | 54 | 316 | 0.0 | 3.0 | 0.00 | 0.46 | 0.08 | 93 | 1009.9 |
| 20260507064959 | 54 | 316 | 0.0 | 3.0 | 0.00 | 0.46 | 0.08 | 93 | 1009.9 |
| 20260507064852 | 54 | 316 | 0.0 | 3.0 | 0.00 | 0.46 | 0.08 | 93 | 1009.9 |
| 20260507064747 | 54 | 315 | 0.0 | 1.0 | 0.00 | 0.46 | 0.08 | 93 | 1009.9 |
| 20260507064640 | 54 | 5 | 0.0 | 0.0 | 0.00 | 0.46 | 0.08 | 93 | 1009.9 |
| 20260507064100 | 54 | 23 | 0.0 | 2.0 | 0.00 | 0.46 | 0.08 | 93 | 1009.8 |
| 20260507063954 | 54 | 23 | 0.0 | 2.0 | 0.00 | 0.46 | 0.08 | 93 | 1009.8 |
| 20260507063850 | 54 | 47 | 0.0 | 2.0 | 0.00 | 0.46 | 0.08 | 93 | 1009.8 |
| 20260507063529 | 54 | 338 | 0.0 | 2.0 | 0.00 | 0.46 | 0.08 | 93 | 1009.9 |
| 20260507063426 | 54 | 91 | 0.0 | 2.0 | 0.00 | 0.46 | 0.08 | 93 | 1009.9 |
| 20260507063322 | 54 | 313 | 0.0 | 0.0 | 0.00 | 0.46 | 0.08 | 93 | 1009.9 |
| 20260507063216 | 54 | 309 | 0.0 | 0.0 | 0.00 | 0.46 | 0.08 | 93 | 1010.0 |
| 20260507063113 | 54 | 296 | 0.0 | 0.0 | 0.00 | 0.46 | 0.08 | 93 | 1010.0 |
| 20260507063009 | 54 | 296 | 0.0 | 0.0 | 0.00 | 0.46 | 0.08 | 93 | 1010.0 |
| 20260507062902 | 54 | 296 | 0.0 | 1.0 | 0.00 | 0.46 | 0.08 | 93 | 1010.0 |
| 20260507062758 | 54 | 296 | 0.0 | 1.0 | 0.00 | 0.46 | 0.08 | 93 | 1010.0 |
| 20260507062652 | 55 | 275 | 0.0 | 0.0 | 0.00 | 0.46 | 0.08 | 93 | 1010.1 |
| 20260507062550 | 55 | 275 | 0.0 | 0.0 | 0.00 | 0.46 | 0.08 | 93 | 1010.0 |
| 20260507062446 | 55 | 275 | 0.0 | 2.0 | 0.00 | 0.46 | 0.08 | 93 | 1010.1 |
| 20260507062338 | 55 | 275 | 0.0 | 2.0 | 0.00 | 0.46 | 0.08 | 93 | 1010.1 |
| 20260507062012 | 55 | 355 | 0.0 | 0.0 | 0.00 | 0.46 | 0.08 | 93 | 1009.9 |
| 20260507061909 | 55 | 355 | 0.0 | 0.0 | 0.00 | 0.46 | 0.08 | 93 | 1009.9 |
| 20260507061803 | 55 | 355 | 0.0 | 0.0 | 0.00 | 0.46 | 0.08 | 93 | 1010.0 |
| 20260507061659 | 55 | 355 | 0.0 | 0.0 | 0.00 | 0.46 | 0.08 | 93 | 1010.0 |
| 20260507061555 | 55 | 355 | 0.0 | 0.0 | 0.00 | 0.46 | 0.08 | 93 | 1010.1 |
| 20260507061453 | 55 | 355 | 0.0 | 0.0 | 0.00 | 0.46 | 0.08 | 93 | 1010.2 |
| 20260507061345 | 55 | 355 | 0.0 | 0.0 | 0.00 | 0.46 | 0.08 | 93 | 1010.2 |
| 20260507061243 | 55 | 355 | 0.0 | 0.0 | 0.00 | 0.46 | 0.08 | 93 | 1010.2 |
| 20260507061137 | 55 | 355 | 0.0 | 0.0 | 0.00 | 0.46 | 0.08 | 93 | 1010.2 |
| 20260507061034 | 55 | 355 | 0.0 | 0.0 | 0.00 | 0.46 | 0.08 | 93 | 1010.2 |
| 20260507060929 | 55 | 355 | 0.0 | 0.0 | 0.00 | 0.46 | 0.08 | 93 | 1010.1 |
| 20260507060825 | 55 | 355 | 0.0 | 1.0 | 0.00 | 0.46 | 0.08 | 93 | 1010.1 |
| 20260507060719 | 55 | 355 | 0.0 | 1.0 | 0.00 | 0.46 | 0.08 | 93 | 1010.1 |
| 20260507060613 | 55 | 355 | 0.0 | 1.0 | 0.00 | 0.46 | 0.08 | 93 | 1010.0 |
| 20260507060508 | 55 | 355 | 0.0 | 1.0 | 0.00 | 0.46 | 0.08 | 93 | 1010.0 |
| 20260507060402 | 55 | 355 | 0.0 | 1.0 | 0.00 | 0.46 | 0.08 | 93 | 1009.9 |
| 20260507060301 | 55 | 355 | 0.0 | 1.0 | 0.00 | 0.46 | 0.08 | 93 | 1009.9 |
| 20260507060152 | 55 | 55 | 0.0 | 1.0 | 0.00 | 0.46 | 0.08 | 93 | 1009.8 |
| 20260507060047 | 55 | 70 | 0.0 | 1.0 | 0.00 | 0.46 | 0.08 | 93 | 1009.8 |
| 20260507055940 | 55 | 315 | 0.0 | 3.0 | 0.00 | 0.46 | 0.08 | 93 | 1009.8 |
| 20260507055832 | 55 | 315 | 0.0 | 3.0 | 0.00 | 0.46 | 0.08 | 93 | 1009.9 |
| 20260507055727 | 55 | 315 | 0.0 | 3.0 | 0.00 | 0.46 | 0.08 | 93 | 1009.9 |
| 20260507055623 | 55 | 315 | 0.0 | 3.0 | 0.00 | 0.46 | 0.08 | 94 | 1009.9 |
| 20260507055517 | 56 | 336 | 0.0 | 3.0 | 0.00 | 0.46 | 0.08 | 93 | 1009.9 |
| 20260507055412 | 56 | 331 | 0.0 | 3.0 | 0.00 | 0.46 | 0.08 | 93 | 1009.9 |
| 20260507055306 | 56 | 327 | 0.0 | 3.0 | 0.00 | 0.46 | 0.08 | 93 | 1009.8 |
| 20260507055158 | 56 | 337 | 0.0 | 3.0 | 0.00 | 0.46 | 0.08 | 94 | 1009.6 |
| 20260507055054 | 56 | 342 | 0.0 | 3.0 | 0.00 | 0.46 | 0.08 | 94 | 1009.5 |
| 20260507054725 | 56 | 350 | 0.0 | 3.0 | 0.00 | 0.46 | 0.08 | 93 | 1009.5 |
| 20260507054620 | 56 | 19 | 0.0 | 3.0 | 0.00 | 0.46 | 0.08 | 93 | 1009.6 |
| 20260507054513 | 56 | 119 | 0.0 | 3.0 | 0.00 | 0.46 | 0.08 | 93 | 1009.6 |
| 20260507054407 | 56 | 309 | 0.0 | 3.0 | 0.00 | 0.46 | 0.08 | 93 | 1009.7 |
| 20260507054303 | 56 | 309 | 0.0 | 3.0 | 0.00 | 0.46 | 0.08 | 93 | 1009.7 |
| 20260507053934 | 56 | 339 | 0.0 | 1.0 | 0.04 | 0.46 | 0.08 | 93 | 1009.6 |
| 20260507053832 | 56 | 283 | 0.0 | 1.0 | 0.04 | 0.46 | 0.08 | 93 | 1009.6 |
| 20260507053727 | 56 | 314 | 0.0 | 1.0 | 0.05 | 0.46 | 0.08 | 93 | 1009.6 |
| 20260507053621 | 56 | 312 | 0.0 | 1.0 | 0.05 | 0.46 | 0.08 | 93 | 1009.7 |
| 20260507053517 | 56 | 11 | 0.0 | 1.0 | 0.05 | 0.46 | 0.08 | 93 | 1009.7 |
| 20260507053414 | 56 | 355 | 0.0 | 1.0 | 0.05 | 0.46 | 0.08 | 93 | 1009.7 |
| 20260507053310 | 56 | 355 | 0.0 | 1.0 | 0.05 | 0.46 | 0.08 | 93 | 1009.6 |
| 20260507053205 | 56 | 355 | 0.0 | 1.0 | 0.05 | 0.46 | 0.08 | 93 | 1009.5 |
| 20260507052836 | 56 | 30 | 0.0 | 1.0 | 0.05 | 0.46 | 0.08 | 93 | 1009.6 |
| 20260507052729 | 56 | 30 | 0.0 | 1.0 | 0.05 | 0.46 | 0.08 | 93 | 1009.7 |
| 20260507052405 | 57 | 22 | 0.0 | 0.0 | 0.00 | 0.45 | 0.06 | 93 | 1010.0 |
| 20260507052305 | 57 | 22 | 0.0 | 1.0 | 0.00 | 0.45 | 0.06 | 93 | 1010.0 |
| 20260507052200 | 57 | 22 | 0.0 | 1.0 | 0.00 | 0.45 | 0.06 | 93 | 1010.0 |
| 20260507052057 | 57 | 22 | 0.0 | 1.0 | 0.00 | 0.45 | 0.06 | 93 | 1010.0 |
| 20260507051729 | 57 | 22 | 0.0 | 1.0 | 0.00 | 0.45 | 0.06 | 93 | 1009.8 |
| 20260507051625 | 57 | 22 | 0.0 | 1.0 | 0.00 | 0.45 | 0.06 | 93 | 1009.8 |
| 20260507051518 | 57 | 350 | 0.0 | 1.0 | 0.00 | 0.45 | 0.06 | 93 | 1009.8 |
| 20260507051413 | 57 | 350 | 0.0 | 1.0 | 0.00 | 0.44 | 0.06 | 93 | 1009.8 |
| 20260507051306 | 57 | 350 | 0.0 | 1.0 | 0.00 | 0.44 | 0.06 | 93 | 1009.8 |
| 20260507051200 | 57 | 5 | 0.0 | 1.0 | 0.00 | 0.44 | 0.06 | 92 | 1009.8 |
| 20260507050612 | 57 | 14 | 0.0 | 0.0 | 0.05 | 0.44 | 0.06 | 92 | 1009.5 |
| 20260507050243 | 57 | 14 | 0.0 | 0.0 | 0.06 | 0.44 | 0.06 | 92 | 1009.4 |
| 20260507050140 | 57 | 14 | 0.0 | 0.0 | 0.08 | 0.44 | 0.06 | 92 | 1009.5 |
| 20260507050033 | 57 | 14 | 0.0 | 3.0 | 0.10 | 0.44 | 0.06 | 92 | 1009.4 |
| 20260507045447 | 58 | 101 | 0.0 | 3.0 | 0.12 | 0.43 | 0.06 | 92 | 1009.5 |
| 20260507045125 | 58 | 336 | 0.0 | 3.0 | 0.12 | 0.43 | 0.05 | 93 | 1009.9 |
| 20260507045022 | 58 | 338 | 0.0 | 3.0 | 0.12 | 0.42 | 0.05 | 93 | 1009.8 |
| 20260507044915 | 58 | 35 | 0.0 | 3.0 | 0.12 | 0.42 | 0.04 | 93 | 1009.7 |
| 20260507044809 | 58 | 35 | 0.0 | 3.0 | 0.16 | 0.42 | 0.04 | 93 | 1009.7 |
| 20260507044703 | 58 | 355 | 0.0 | 3.0 | 0.21 | 0.42 | 0.04 | 93 | 1009.7 |
| 20260507044600 | 58 | 355 | 1.0 | 3.0 | 0.27 | 0.42 | 0.04 | 92 | 1009.7 |
| 20260507044454 | 58 | 66 | 1.0 | 3.0 | 0.27 | 0.41 | 0.04 | 93 | 1009.6 |
| 20260507044348 | 58 | 331 | 1.0 | 3.0 | 0.00 | 0.41 | 0.03 | 93 | 1009.4 |
| 20260507044244 | 58 | 0 | 1.0 | 3.0 | 0.00 | 0.40 | 0.03 | 93 | 1009.2 |
| 20260507044139 | 58 | 97 | 0.0 | 3.0 | 0.00 | 0.40 | 0.02 | 93 | 1009.2 |
| 20260507043812 | 59 | 324 | 0.0 | 2.0 | 0.00 | 0.40 | 0.02 | 93 | 1010.0 |
| 20260507043705 | 59 | 266 | 0.0 | 2.0 | 0.00 | 0.40 | 0.02 | 92 | 1009.8 |
| 20260507043342 | 59 | 91 | 0.0 | 2.0 | 0.00 | 0.40 | 0.02 | 92 | 1009.2 |
| 20260507043239 | 59 | 5 | 0.0 | 1.0 | 0.00 | 0.40 | 0.02 | 92 | 1009.3 |
| 20260507043134 | 59 | 5 | 0.0 | 0.0 | 0.04 | 0.40 | 0.02 | 92 | 1009.5 |
| 20260507043030 | 59 | 5 | 0.0 | 0.0 | 0.04 | 0.40 | 0.02 | 92 | 1009.6 |
| 20260507042927 | 59 | 5 | 0.0 | 0.0 | 0.04 | 0.40 | 0.02 | 92 | 1009.6 |
| 20260507042824 | 59 | 5 | 0.0 | 0.0 | 0.04 | 0.40 | 0.02 | 92 | 1009.6 |
| 20260507042717 | 59 | 5 | 0.0 | 0.0 | 0.05 | 0.40 | 0.02 | 92 | 1009.5 |
| 20260507042613 | 59 | 5 | 0.0 | 0.0 | 0.05 | 0.40 | 0.02 | 92 | 1009.5 |
| 20260507042509 | 59 | 5 | 0.0 | 0.0 | 0.06 | 0.40 | 0.02 | 92 | 1009.5 |
| 20260507042144 | 59 | 5 | 0.0 | 0.0 | 0.08 | 0.40 | 0.02 | 92 | 1009.9 |
| 20260507042036 | 59 | 5 | 0.0 | 0.0 | 0.08 | 0.40 | 0.02 | 92 | 1009.9 |
| 20260507041933 | 59 | 5 | 0.0 | 0.0 | 0.08 | 0.40 | 0.02 | 92 | 1010.1 |
| 20260507041826 | 59 | 5 | 0.0 | 0.0 | 0.08 | 0.40 | 0.02 | 91 | 1010.2 |
| 20260507041724 | 59 | 5 | 0.0 | 0.0 | 0.08 | 0.40 | 0.02 | 91 | 1010.1 |
| 20260507041616 | 59 | 5 | 0.0 | 0.0 | 0.08 | 0.39 | 0.02 | 91 | 1010.0 |
| 20260507041514 | 59 | 5 | 0.0 | 0.0 | 0.08 | 0.39 | 0.02 | 91 | 1010.0 |
| 20260507041148 | 59 | 5 | 0.0 | 0.0 | 0.00 | 0.38 | 0.01 | 91 | 1010.0 |
| 20260507041042 | 59 | 5 | 0.0 | 0.0 | 0.00 | 0.38 | 0.01 | 91 | 1010.1 |
| 20260507040934 | 59 | 5 | 0.0 | 0.0 | 0.00 | 0.38 | 0.01 | 91 | 1010.2 |
| 20260507040829 | 59 | 5 | 0.0 | 1.0 | 0.00 | 0.38 | 0.01 | 91 | 1010.2 |
| 20260507040724 | 59 | 5 | 0.0 | 1.0 | 0.00 | 0.38 | 0.01 | 91 | 1010.1 |
| 20260507040621 | 59 | 5 | 0.0 | 0.0 | 0.00 | 0.38 | 0.00 | 91 | 1009.9 |
| 20260507040516 | 59 | 5 | 0.0 | 0.0 | 0.00 | 0.38 | 0.00 | 91 | 1009.9 |
| 20260507040408 | 59 | 5 | 0.0 | 1.0 | 0.00 | 0.38 | 0.00 | 91 | 1009.8 |
| 20260507040301 | 59 | 5 | 0.0 | 1.0 | 0.04 | 0.38 | 0.00 | 91 | 1009.9 |
| 20260507040157 | 59 | 38 | 0.0 | 1.0 | 0.04 | 0.38 | 0.00 | 91 | 1009.9 |
| 20260507040051 | 59 | 214 | 0.0 | 0.0 | 0.04 | 0.38 | 0.00 | 91 | 1009.9 |
| 20260507035728 | 59 | 240 | 0.0 | 2.0 | 0.06 | 0.38 | 0.38 | 91 | 1009.8 |
| 20260507035621 | 59 | 267 | 0.0 | 2.0 | 0.06 | 0.38 | 0.38 | 91 | 1009.8 |
| 20260507035517 | 60 | 253 | 0.0 | 2.0 | 0.06 | 0.38 | 0.38 | 91 | 1009.8 |
| 20260507035411 | 60 | 286 | 0.0 | 2.0 | 0.08 | 0.38 | 0.38 | 91 | 1009.7 |
| 20260507035306 | 60 | 331 | 0.0 | 2.0 | 0.10 | 0.38 | 0.38 | 90 | 1009.3 |
| 20260507035203 | 60 | 331 | 0.0 | 2.0 | 0.12 | 0.38 | 0.38 | 90 | 1009.1 |
| 20260507035057 | 60 | 74 | 0.0 | 2.0 | 0.13 | 0.38 | 0.38 | 90 | 1009.0 |
| 20260507034954 | 60 | 74 | 0.0 | 2.0 | 0.13 | 0.38 | 0.38 | 90 | 1009.0 |
| 20260507034847 | 60 | 43 | 0.0 | 2.0 | 0.13 | 0.38 | 0.38 | 90 | 1009.1 |
| 20260507034740 | 60 | 350 | 0.0 | 2.0 | 0.13 | 0.36 | 0.38 | 90 | 1009.3 |
| 20260507034631 | 60 | 325 | 0.0 | 2.0 | 0.15 | 0.36 | 0.37 | 89 | 1009.2 |
| 20260507034527 | 60 | 325 | 0.0 | 2.0 | 0.21 | 0.36 | 0.37 | 89 | 1009.0 |
| 20260507034425 | 60 | 355 | 0.0 | 1.0 | 0.26 | 0.36 | 0.37 | 90 | 1008.9 |
| 20260507034322 | 60 | 355 | 0.0 | 1.0 | 0.26 | 0.36 | 0.37 | 90 | 1008.8 |
| 20260507034220 | 60 | 110 | 0.0 | 1.0 | 0.00 | 0.36 | 0.36 | 90 | 1008.8 |
| 20260507034115 | 60 | 109 | 0.0 | 1.0 | 0.00 | 0.35 | 0.36 | 90 | 1008.8 |
| 20260507034009 | 60 | 349 | 0.0 | 1.0 | 0.00 | 0.35 | 0.35 | 89 | 1008.8 |
| 20260507033640 | 60 | 330 | 0.0 | 1.0 | 0.00 | 0.35 | 0.35 | 88 | 1009.4 |
| 20260507033535 | 60 | 74 | 0.0 | 1.0 | 0.00 | 0.35 | 0.35 | 88 | 1009.2 |
| 20260507033432 | 60 | 41 | 0.0 | 0.0 | 0.00 | 0.35 | 0.35 | 88 | 1009.2 |
| 20260507033327 | 60 | 113 | 0.0 | 0.0 | 0.00 | 0.35 | 0.35 | 89 | 1009.2 |
| 20260507033221 | 60 | 113 | 0.0 | 2.0 | 0.00 | 0.35 | 0.35 | 89 | 1009.1 |
| 20260507033116 | 60 | 115 | 0.0 | 2.0 | 0.00 | 0.35 | 0.35 | 89 | 1009.2 |
| 20260507033012 | 60 | 30 | 0.0 | 0.0 | 0.00 | 0.35 | 0.35 | 89 | 1009.2 |
| 20260507032910 | 60 | 30 | 0.0 | 0.0 | 0.00 | 0.35 | 0.35 | 89 | 1009.2 |
| 20260507032805 | 60 | 30 | 0.0 | 0.0 | 0.00 | 0.35 | 0.35 | 89 | 1009.3 |
| 20260507032658 | 60 | 22 | 0.0 | 0.0 | 0.00 | 0.35 | 0.35 | 89 | 1009.3 |
| 20260507032338 | 61 | 24 | 0.0 | 1.0 | 0.00 | 0.35 | 0.35 | 89 | 1009.3 |
| 20260507032231 | 61 | 24 | 0.0 | 1.0 | 0.00 | 0.35 | 0.35 | 89 | 1009.3 |
| 20260507032124 | 61 | 182 | 0.0 | 0.0 | 0.00 | 0.35 | 0.35 | 89 | 1009.3 |
| 20260507032017 | 61 | 182 | 0.0 | 0.0 | 0.00 | 0.35 | 0.35 | 89 | 1009.2 |
| 20260507031913 | 61 | 182 | 0.0 | 1.0 | 0.00 | 0.35 | 0.35 | 89 | 1009.3 |
| 20260507031811 | 61 | 186 | 0.0 | 1.0 | 0.00 | 0.35 | 0.35 | 90 | 1009.3 |
| 20260507031704 | 61 | 186 | 0.0 | 1.0 | 0.00 | 0.35 | 0.35 | 90 | 1009.2 |
| 20260507031558 | 61 | 19 | 0.0 | 0.0 | 0.00 | 0.35 | 0.35 | 90 | 1009.3 |
| 20260507031234 | 61 | 59 | 0.0 | 1.0 | 0.00 | 0.35 | 0.35 | 90 | 1009.1 |
| 20260507030907 | 61 | 128 | 0.0 | 1.0 | 0.00 | 0.35 | 0.35 | 90 | 1009.1 |
| 20260507030803 | 61 | 150 | 0.0 | 1.0 | 0.00 | 0.35 | 0.35 | 90 | 1009.1 |
| 20260507030700 | 61 | 171 | 0.0 | 1.0 | 0.00 | 0.35 | 0.35 | 90 | 1009.3 |
| 20260507030557 | 61 | 13 | 0.0 | 1.0 | 0.00 | 0.35 | 0.35 | 90 | 1009.4 |
| 20260507030234 | 61 | 0 | 0.0 | 0.0 | 0.00 | 0.35 | 0.35 | 91 | 1009.1 |
| 20260507030131 | 61 | 58 | 0.0 | 2.0 | 0.00 | 0.35 | 0.35 | 91 | 1009.1 |
| 20260507030024 | 61 | 98 | 0.0 | 2.0 | 0.00 | 0.35 | 0.35 | 91 | 1009.1 |
| 20260507025919 | 61 | 328 | 0.0 | 2.0 | 0.00 | 0.35 | 0.35 | 91 | 1009.3 |
| 20260507025812 | 61 | 328 | 0.0 | 2.0 | 0.00 | 0.35 | 0.35 | 91 | 1009.3 |
| 20260507025705 | 62 | 328 | 0.0 | 2.0 | 0.00 | 0.35 | 0.35 | 91 | 1009.2 |
| 20260507025559 | 62 | 293 | 0.0 | 2.0 | 0.00 | 0.35 | 0.35 | 91 | 1009.1 |
| 20260507025453 | 62 | 16 | 0.0 | 2.0 | 0.00 | 0.35 | 0.35 | 91 | 1009.0 |
| 20260507025350 | 62 | 16 | 0.0 | 2.0 | 0.00 | 0.35 | 0.35 | 91 | 1008.8 |
| 20260507025247 | 62 | 16 | 0.0 | 2.0 | 0.00 | 0.35 | 0.35 | 91 | 1008.7 |
| 20260507025145 | 62 | 16 | 0.0 | 2.0 | 0.00 | 0.35 | 0.35 | 91 | 1008.7 |
| 20260507024824 | 62 | 319 | 0.0 | 2.0 | 0.00 | 0.35 | 0.35 | 91 | 1008.6 |
| 20260507024717 | 62 | 5 | 0.0 | 2.0 | 0.00 | 0.35 | 0.35 | 91 | 1008.6 |
| 20260507024610 | 62 | 348 | 0.0 | 2.0 | 0.00 | 0.35 | 0.35 | 91 | 1008.5 |
| 20260507024504 | 62 | 348 | 0.0 | 2.0 | 0.00 | 0.35 | 0.35 | 92 | 1008.5 |
| 20260507024358 | 62 | 0 | 0.0 | 2.0 | 0.00 | 0.35 | 0.35 | 92 | 1008.5 |
| 20260507024252 | 62 | 0 | 0.0 | 2.0 | 0.00 | 0.35 | 0.35 | 92 | 1008.5 |
| 20260507024148 | 62 | 39 | 0.0 | 0.0 | 0.00 | 0.35 | 0.35 | 92 | 1008.5 |
| 20260507024041 | 62 | 331 | 0.0 | 0.0 | 0.00 | 0.35 | 0.35 | 92 | 1008.5 |
| 20260507023720 | 62 | 94 | 0.0 | 1.0 | 0.00 | 0.35 | 0.35 | 92 | 1008.4 |
| 20260507023618 | 63 | 22 | 0.0 | 1.0 | 0.00 | 0.35 | 0.35 | 92 | 1008.4 |
| 20260507023515 | 63 | 57 | 0.0 | 1.0 | 0.00 | 0.35 | 0.35 | 92 | 1008.4 |
| 20260507023411 | 63 | 57 | 0.0 | 1.0 | 0.00 | 0.35 | 0.35 | 92 | 1008.5 |
| 20260507023309 | 63 | 57 | 0.0 | 1.0 | 0.00 | 0.35 | 0.35 | 92 | 1008.5 |
| 20260507023204 | 63 | 57 | 0.0 | 1.0 | 0.00 | 0.35 | 0.35 | 92 | 1008.6 |
| 20260507023058 | 63 | 74 | 0.0 | 1.0 | 0.00 | 0.35 | 0.35 | 92 | 1008.6 |
| 20260507022956 | 63 | 260 | 0.0 | 1.0 | 0.00 | 0.35 | 0.35 | 92 | 1008.7 |
| 20260507022852 | 63 | 15 | 0.0 | 1.0 | 0.00 | 0.35 | 0.35 | 92 | 1008.8 |
| 20260507022746 | 63 | 22 | 0.0 | 1.0 | 0.00 | 0.35 | 0.35 | 92 | 1008.8 |
| 20260507022640 | 63 | 350 | 0.0 | 1.0 | 0.00 | 0.35 | 0.35 | 92 | 1008.7 |
| 20260507022534 | 63 | 350 | 0.0 | 1.0 | 0.00 | 0.35 | 0.35 | 92 | 1008.6 |
| 20260507022428 | 63 | 69 | 0.0 | 1.0 | 0.00 | 0.35 | 0.35 | 92 | 1008.6 |
| 20260507022323 | 63 | 9 | 0.0 | 0.0 | 0.00 | 0.35 | 0.35 | 92 | 1008.6 |
| 20260507022220 | 63 | 9 | 0.0 | 1.0 | 0.00 | 0.35 | 0.35 | 92 | 1008.6 |
| 20260507022117 | 63 | 5 | 0.0 | 1.0 | 0.00 | 0.35 | 0.35 | 92 | 1008.6 |
| 20260507022014 | 63 | 5 | 0.0 | 1.0 | 0.00 | 0.35 | 0.35 | 92 | 1008.5 |
| 20260507021908 | 63 | 9 | 0.0 | 1.0 | 0.00 | 0.35 | 0.35 | 92 | 1008.5 |
| 20260507021802 | 63 | 9 | 0.0 | 1.0 | 0.00 | 0.35 | 0.35 | 92 | 1008.5 |
| 20260507021657 | 63 | 9 | 0.0 | 0.0 | 0.00 | 0.35 | 0.35 | 92 | 1008.5 |
| 20260507021332 | 64 | 9 | 0.0 | 0.0 | 0.00 | 0.35 | 0.35 | 92 | 1008.6 |
| 20260507021227 | 64 | 9 | 0.0 | 1.0 | 0.00 | 0.35 | 0.35 | 92 | 1008.6 |
| 20260507021124 | 64 | 9 | 0.0 | 1.0 | 0.00 | 0.35 | 0.35 | 92 | 1008.5 |
| 20260507021022 | 64 | 9 | 0.0 | 1.0 | 0.00 | 0.35 | 0.35 | 92 | 1008.4 |
| 20260507020916 | 64 | 313 | 0.0 | 0.0 | 0.00 | 0.35 | 0.35 | 92 | 1008.4 |
| 20260507020551 | 64 | 313 | 0.0 | 1.0 | 0.00 | 0.35 | 0.35 | 92 | 1008.5 |
| 20260507020230 | 64 | 313 | 0.0 | 1.0 | 0.00 | 0.35 | 0.35 | 92 | 1008.1 |
| 20260507020124 | 64 | 313 | 0.0 | 1.0 | 0.00 | 0.35 | 0.35 | 92 | 1008.0 |
| 20260507020017 | 64 | 313 | 0.0 | 1.0 | 0.00 | 0.35 | 0.35 | 92 | 1008.0 |
| 20260507015913 | 64 | 313 | 0.0 | 1.0 | 0.00 | 0.35 | 0.35 | 92 | 1008.0 |
| 20260507015808 | 64 | 313 | 0.0 | 1.0 | 0.00 | 0.35 | 0.35 | 91 | 1008.1 |
| 20260507015704 | 64 | 313 | 0.0 | 1.0 | 0.00 | 0.35 | 0.35 | 91 | 1008.1 |
| 20260507015600 | 64 | 313 | 0.0 | 1.0 | 0.00 | 0.35 | 0.35 | 91 | 1008.1 |
| 20260507015458 | 64 | 313 | 0.0 | 1.0 | 0.00 | 0.35 | 0.35 | 91 | 1008.1 |
| 20260507015351 | 64 | 313 | 0.0 | 1.0 | 0.00 | 0.35 | 0.35 | 91 | 1008.1 |
| 20260507015024 | 65 | 313 | 0.0 | 0.0 | 0.00 | 0.35 | 0.35 | 91 | 1008.0 |
| 20260507014917 | 65 | 313 | 0.0 | 0.0 | 0.00 | 0.35 | 0.35 | 91 | 1008.0 |
| 20260507014556 | 65 | 313 | 0.0 | 0.0 | 0.00 | 0.35 | 0.35 | 91 | 1008.0 |
| 20260507014447 | 65 | 313 | 0.0 | 0.0 | 0.00 | 0.35 | 0.35 | 91 | 1008.1 |
| 20260507014343 | 65 | 313 | 0.0 | 0.0 | 0.00 | 0.35 | 0.35 | 91 | 1008.2 |
| 20260507014240 | 65 | 313 | 0.0 | 0.0 | 0.00 | 0.35 | 0.35 | 91 | 1008.3 |
| 20260507014133 | 65 | 313 | 0.0 | 0.0 | 0.00 | 0.35 | 0.35 | 91 | 1008.3 |
| 20260507014026 | 65 | 313 | 0.0 | 0.0 | 0.00 | 0.35 | 0.35 | 91 | 1008.3 |
| 20260507013920 | 65 | 313 | 0.0 | 0.0 | 0.00 | 0.35 | 0.35 | 91 | 1008.3 |
| 20260507013816 | 65 | 313 | 0.0 | 0.0 | 0.00 | 0.35 | 0.35 | 92 | 1008.4 |
| 20260507013709 | 65 | 313 | 0.0 | 0.0 | 0.00 | 0.35 | 0.35 | 92 | 1008.5 |
| 20260507013606 | 65 | 273 | 0.0 | 1.0 | 0.00 | 0.35 | 0.35 | 92 | 1008.6 |
| 20260507013459 | 65 | 273 | 0.0 | 1.0 | 0.00 | 0.35 | 0.35 | 92 | 1008.6 |
| 20260507013132 | 65 | 286 | 0.0 | 1.0 | 0.04 | 0.35 | 0.35 | 92 | 1008.4 |
| 20260507013028 | 65 | 309 | 0.0 | 1.0 | 0.04 | 0.35 | 0.35 | 92 | 1008.3 |
| 20260507012925 | 65 | 26 | 0.0 | 0.0 | 0.05 | 0.35 | 0.35 | 91 | 1008.3 |
| 20260507012816 | 65 | 26 | 0.0 | 0.0 | 0.05 | 0.35 | 0.35 | 91 | 1008.2 |
| 20260507012711 | 65 | 26 | 0.0 | 0.0 | 0.06 | 0.35 | 0.35 | 91 | 1008.1 |
| 20260507012607 | 65 | 26 | 0.0 | 0.0 | 0.06 | 0.35 | 0.35 | 91 | 1008.1 |
| 20260507012505 | 65 | 26 | 0.0 | 0.0 | 0.06 | 0.35 | 0.35 | 91 | 1008.1 |
| 20260507012402 | 65 | 26 | 0.0 | 0.0 | 0.08 | 0.35 | 0.35 | 91 | 1008.1 |
| 20260507012300 | 65 | 26 | 0.0 | 0.0 | 0.10 | 0.35 | 0.35 | 91 | 1008.1 |
| 20260507012157 | 65 | 26 | 0.0 | 0.0 | 0.12 | 0.35 | 0.35 | 91 | 1008.1 |
| 20260507012051 | 65 | 26 | 0.0 | 0.0 | 0.13 | 0.35 | 0.35 | 91 | 1008.2 |
| 20260507011944 | 66 | 26 | 0.0 | 0.0 | 0.13 | 0.35 | 0.35 | 91 | 1008.2 |
| 20260507011838 | 66 | 26 | 0.0 | 0.0 | 0.13 | 0.35 | 0.35 | 91 | 1008.3 |
| 20260507011736 | 66 | 26 | 0.0 | 0.0 | 0.13 | 0.33 | 0.35 | 91 | 1008.3 |
| 20260507011634 | 65 | 26 | 0.0 | 0.0 | 0.13 | 0.33 | 0.34 | 91 | 1008.4 |
| 20260507011526 | 66 | 26 | 0.0 | 0.0 | 0.18 | 0.33 | 0.34 | 91 | 1008.5 |
| 20260507011422 | 66 | 26 | 0.0 | 0.0 | 0.26 | 0.33 | 0.34 | 91 | 1008.5 |
| 20260507011314 | 66 | 26 | 0.0 | 0.0 | 0.27 | 0.32 | 0.34 | 91 | 1008.5 |
| 20260507010948 | 66 | 26 | 0.0 | 0.0 | 0.00 | 0.32 | 0.32 | 91 | 1008.4 |
| 20260507010846 | 66 | 26 | 0.0 | 1.0 | 0.00 | 0.32 | 0.32 | 91 | 1008.4 |
| 20260507010744 | 66 | 26 | 0.0 | 1.0 | 0.00 | 0.32 | 0.32 | 90 | 1008.4 |
| 20260507010637 | 66 | 26 | 0.0 | 1.0 | 0.00 | 0.32 | 0.32 | 90 | 1008.5 |
| 20260507010534 | 66 | 26 | 0.0 | 1.0 | 0.00 | 0.32 | 0.32 | 90 | 1008.5 |
| 20260507010425 | 66 | 26 | 0.0 | 1.0 | 0.00 | 0.32 | 0.32 | 90 | 1008.6 |
| 20260507010321 | 66 | 26 | 0.0 | 1.0 | 0.00 | 0.32 | 0.32 | 90 | 1008.6 |
| 20260507005950 | 66 | 19 | 0.0 | 0.0 | 0.00 | 0.32 | 0.32 | 90 | 1008.6 |
| 20260507005844 | 66 | 19 | 0.0 | 0.0 | 0.00 | 0.32 | 0.32 | 90 | 1008.6 |
| 20260507005741 | 66 | 19 | 0.0 | 0.0 | 0.00 | 0.32 | 0.32 | 90 | 1008.6 |
| 20260507005636 | 66 | 19 | 0.0 | 0.0 | 0.00 | 0.32 | 0.32 | 90 | 1008.6 |
| 20260507005533 | 66 | 19 | 0.0 | 0.0 | 0.00 | 0.32 | 0.32 | 90 | 1008.6 |
| 20260507005427 | 66 | 19 | 0.0 | 0.0 | 0.00 | 0.32 | 0.32 | 90 | 1008.5 |
| 20260507005325 | 66 | 19 | 0.0 | 0.0 | 0.00 | 0.32 | 0.32 | 90 | 1008.5 |
| 20260507005220 | 66 | 19 | 0.0 | 0.0 | 0.00 | 0.32 | 0.32 | 90 | 1008.4 |
| 20260507005116 | 66 | 19 | 0.0 | 0.0 | 0.00 | 0.32 | 0.32 | 90 | 1008.5 |
| 20260507005009 | 66 | 19 | 0.0 | 0.0 | 0.00 | 0.32 | 0.32 | 90 | 1008.4 |
| 20260507004901 | 66 | 19 | 0.0 | 0.0 | 0.00 | 0.32 | 0.32 | 90 | 1008.3 |
| 20260507004537 | 66 | 19 | 0.0 | 0.0 | 0.00 | 0.32 | 0.32 | 90 | 1008.2 |
| 20260507004435 | 66 | 19 | 0.0 | 0.0 | 0.00 | 0.32 | 0.32 | 89 | 1008.2 |
| 20260507004328 | 66 | 19 | 0.0 | 0.0 | 0.00 | 0.32 | 0.32 | 90 | 1008.1 |
| 20260507004223 | 66 | 19 | 0.0 | 0.0 | 0.00 | 0.32 | 0.32 | 89 | 1008.0 |
| 20260507004119 | 66 | 19 | 0.0 | 0.0 | 0.00 | 0.32 | 0.32 | 90 | 1008.0 |
| 20260507003755 | 66 | 19 | 0.0 | 0.0 | 0.00 | 0.32 | 0.32 | 89 | 1007.9 |
| 20260507003648 | 66 | 19 | 0.0 | 0.0 | 0.00 | 0.32 | 0.32 | 89 | 1007.9 |
| 20260507003545 | 66 | 19 | 0.0 | 0.0 | 0.00 | 0.32 | 0.32 | 89 | 1008.0 |
| 20260507003442 | 66 | 19 | 0.0 | 0.0 | 0.00 | 0.32 | 0.32 | 89 | 1008.0 |
| 20260507003115 | 66 | 19 | 0.0 | 0.0 | 0.00 | 0.32 | 0.32 | 89 | 1008.0 |
| 20260507003011 | 66 | 19 | 0.0 | 0.0 | 0.00 | 0.32 | 0.32 | 89 | 1008.1 |
| 20260507002905 | 66 | 19 | 0.0 | 0.0 | 0.00 | 0.32 | 0.32 | 89 | 1008.0 |
| 20260507002802 | 66 | 19 | 0.0 | 0.0 | 0.00 | 0.32 | 0.32 | 89 | 1008.1 |
| 20260507002439 | 66 | 19 | 0.0 | 0.0 | 0.00 | 0.32 | 0.32 | 89 | 1007.9 |
| 20260507002332 | 66 | 19 | 0.0 | 0.0 | 0.00 | 0.32 | 0.32 | 89 | 1007.9 |
| 20260507002225 | 66 | 19 | 0.0 | 0.0 | 0.00 | 0.32 | 0.32 | 88 | 1007.9 |
| 20260507002123 | 66 | 19 | 0.0 | 0.0 | 0.00 | 0.32 | 0.32 | 88 | 1008.0 |
| 20260507002018 | 66 | 19 | 0.0 | 0.0 | 0.00 | 0.32 | 0.32 | 88 | 1007.9 |
| 20260507001913 | 66 | 19 | 0.0 | 0.0 | 0.00 | 0.32 | 0.32 | 88 | 1007.9 |
| 20260507001807 | 66 | 19 | 0.0 | 0.0 | 0.00 | 0.32 | 0.32 | 88 | 1007.8 |
| 20260507001703 | 66 | 19 | 0.0 | 0.0 | 0.00 | 0.32 | 0.32 | 88 | 1007.8 |
| 20260507001557 | 66 | 19 | 0.0 | 0.0 | 0.00 | 0.32 | 0.32 | 88 | 1007.8 |
| 20260507001452 | 66 | 19 | 0.0 | 0.0 | 0.00 | 0.32 | 0.32 | 88 | 1007.9 |
| 20260507001349 | 66 | 19 | 0.0 | 0.0 | 0.00 | 0.32 | 0.32 | 88 | 1007.9 |
| 20260507001245 | 67 | 19 | 0.0 | 0.0 | 0.00 | 0.32 | 0.32 | 88 | 1007.9 |
| 20260507001138 | 67 | 19 | 0.0 | 0.0 | 0.00 | 0.32 | 0.32 | 88 | 1007.9 |
| 20260507001033 | 67 | 19 | 0.0 | 0.0 | 0.00 | 0.32 | 0.32 | 88 | 1007.9 |
| 20260507000929 | 67 | 19 | 0.0 | 0.0 | 0.00 | 0.32 | 0.32 | 88 | 1007.9 |
| 20260507000826 | 67 | 19 | 0.0 | 0.0 | 0.00 | 0.32 | 0.32 | 89 | 1007.9 |
| 20260507000718 | 67 | 19 | 0.0 | 0.0 | 0.00 | 0.32 | 0.32 | 88 | 1008.0 |
| 20260507000616 | 67 | 19 | 0.0 | 0.0 | 0.00 | 0.32 | 0.32 | 88 | 1008.0 |
| 20260507000509 | 67 | 19 | 0.0 | 0.0 | 0.00 | 0.32 | 0.32 | 88 | 1007.9 |
| 20260507000402 | 67 | 19 | 0.0 | 0.0 | 0.00 | 0.32 | 0.32 | 88 | 1007.8 |
| 20260507000039 | 67 | 19 | 0.0 | 0.0 | 0.00 | 0.32 | 0.32 | 88 | 1007.8 |
| 20260506235932 | 67 | 19 | 0.0 | 0.0 | 0.00 | 0.32 | 0.32 | 88 | 1007.8 |
| 20260506235825 | 67 | 19 | 0.0 | 0.0 | 0.00 | 0.32 | 0.32 | 88 | 1007.7 |
| 20260506235721 | 67 | 19 | 0.0 | 0.0 | 0.00 | 0.32 | 0.32 | 88 | 1007.7 |
| 20260506235618 | 67 | 19 | 0.0 | 0.0 | 0.00 | 0.32 | 0.32 | 88 | 1007.6 |
| 20260506235029 | 67 | 19 | 0.0 | 0.0 | 0.00 | 0.32 | 0.32 | 88 | 1007.5 |
| 20260506234927 | 67 | 19 | 0.0 | 0.0 | 0.00 | 0.32 | 0.32 | 88 | 1007.6 |
| 20260506234825 | 67 | 19 | 0.0 | 0.0 | 0.00 | 0.32 | 0.32 | 88 | 1007.5 |
| 20260506234723 | 67 | 19 | 0.0 | 0.0 | 0.00 | 0.32 | 0.32 | 88 | 1007.5 |
| 20260506234620 | 67 | 19 | 0.0 | 0.0 | 0.00 | 0.32 | 0.32 | 88 | 1007.4 |
| 20260506234516 | 67 | 19 | 0.0 | 0.0 | 0.00 | 0.32 | 0.32 | 88 | 1007.4 |
| 20260506234148 | 67 | 19 | 0.0 | 0.0 | 0.00 | 0.32 | 0.32 | 88 | 1007.3 |
| 20260506233824 | 67 | 19 | 0.0 | 1.0 | 0.00 | 0.32 | 0.32 | 87 | 1007.4 |
| 20260506233720 | 67 | 19 | 0.0 | 1.0 | 0.00 | 0.32 | 0.32 | 87 | 1007.4 |
| 20260506233356 | 68 | 19 | 0.0 | 0.0 | 0.00 | 0.32 | 0.32 | 87 | 1007.2 |
| 20260506233248 | 68 | 19 | 0.0 | 0.0 | 0.00 | 0.32 | 0.32 | 87 | 1007.2 |
| 20260506233142 | 68 | 19 | 0.0 | 0.0 | 0.00 | 0.32 | 0.32 | 87 | 1007.2 |
| 20260506233038 | 68 | 19 | 0.0 | 0.0 | 0.00 | 0.32 | 0.32 | 87 | 1007.2 |
| 20260506232931 | 68 | 19 | 0.0 | 0.0 | 0.00 | 0.32 | 0.32 | 87 | 1007.1 |
| 20260506232829 | 68 | 19 | 0.0 | 0.0 | 0.00 | 0.32 | 0.32 | 87 | 1007.0 |
| 20260506232722 | 68 | 19 | 0.0 | 0.0 | 0.00 | 0.32 | 0.32 | 87 | 1007.0 |
| 20260506232359 | 68 | 19 | 0.0 | 0.0 | 0.00 | 0.32 | 0.32 | 87 | 1006.9 |
| 20260506232254 | 68 | 19 | 0.0 | 0.0 | 0.00 | 0.32 | 0.32 | 87 | 1006.9 |
| 20260506231932 | 68 | 19 | 0.0 | 0.0 | 0.00 | 0.32 | 0.32 | 86 | 1006.9 |
| 20260506231830 | 68 | 19 | 0.0 | 0.0 | 0.00 | 0.32 | 0.32 | 86 | 1006.8 |
| 20260506231722 | 68 | 19 | 0.0 | 0.0 | 0.00 | 0.32 | 0.32 | 86 | 1006.9 |
| 20260506231617 | 68 | 88 | 0.0 | 0.0 | 0.00 | 0.32 | 0.32 | 86 | 1006.9 |
| 20260506231249 | 68 | 88 | 0.0 | 1.0 | 0.00 | 0.32 | 0.32 | 87 | 1006.9 |
| 20260506231143 | 68 | 41 | 0.0 | 1.0 | 0.00 | 0.32 | 0.32 | 86 | 1006.9 |
| 20260506231040 | 68 | 41 | 0.0 | 0.0 | 0.00 | 0.32 | 0.32 | 86 | 1006.9 |
| 20260506230716 | 68 | 34 | 0.0 | 0.0 | 0.00 | 0.32 | 0.32 | 86 | 1007.0 |
| 20260506230608 | 68 | 34 | 0.0 | 0.0 | 0.00 | 0.32 | 0.32 | 86 | 1007.0 |
| 20260506230501 | 68 | 57 | 0.0 | 0.0 | 0.00 | 0.32 | 0.32 | 86 | 1006.8 |
| 20260506230354 | 68 | 59 | 0.0 | 0.0 | 0.00 | 0.32 | 0.32 | 86 | 1006.8 |
| 20260506230248 | 68 | 59 | 0.0 | 1.0 | 0.00 | 0.32 | 0.32 | 86 | 1006.8 |
| 20260506230144 | 68 | 165 | 0.0 | 1.0 | 0.00 | 0.32 | 0.32 | 86 | 1006.8 |
| 20260506230042 | 68 | 241 | 0.0 | 1.0 | 0.00 | 0.32 | 0.32 | 86 | 1006.8 |
| 20260506225937 | 68 | 241 | 0.0 | 1.0 | 0.00 | 0.32 | 0.32 | 86 | 1006.8 |
| 20260506225835 | 68 | 289 | 0.0 | 1.0 | 0.00 | 0.32 | 0.32 | 86 | 1006.8 |
| 20260506225729 | 68 | 289 | 0.0 | 1.0 | 0.00 | 0.32 | 0.32 | 86 | 1006.8 |
| 20260506225622 | 68 | 179 | 0.0 | 1.0 | 0.00 | 0.32 | 0.32 | 86 | 1006.8 |
| 20260506225518 | 68 | 153 | 0.0 | 0.0 | 0.00 | 0.32 | 0.32 | 86 | 1006.8 |
| 20260506224927 | 68 | 84 | 0.0 | 6.0 | 0.00 | 0.32 | 0.32 | 86 | 1006.7 |
| 20260506224824 | 68 | 125 | 0.0 | 6.0 | 0.00 | 0.32 | 0.32 | 86 | 1006.8 |
| 20260506224716 | 68 | 105 | 0.0 | 6.0 | 0.00 | 0.32 | 0.32 | 86 | 1006.8 |
| 20260506223651 | 68 | 239 | 0.0 | 4.0 | 0.00 | 0.32 | 0.32 | 86 | 1006.9 |
| 20260506223546 | 68 | 224 | 0.0 | 4.0 | 0.00 | 0.32 | 0.32 | 86 | 1006.9 |
| 20260506223441 | 68 | 224 | 0.0 | 4.0 | 0.00 | 0.32 | 0.32 | 86 | 1006.8 |
| 20260506223111 | 68 | 167 | 0.0 | 4.0 | 0.00 | 0.32 | 0.32 | 86 | 1006.8 |
| 20260506223003 | 68 | 294 | 0.0 | 4.0 | 0.00 | 0.32 | 0.32 | 86 | 1006.8 |
| 20260506222857 | 68 | 9 | 0.0 | 4.0 | 0.00 | 0.32 | 0.32 | 86 | 1006.8 |
| 20260506222534 | 68 | 213 | 0.0 | 2.0 | 0.00 | 0.32 | 0.32 | 85 | 1006.8 |
| 20260506222427 | 68 | 254 | 0.0 | 1.0 | 0.00 | 0.32 | 0.32 | 86 | 1006.8 |
| 20260506222100 | 68 | 191 | 0.0 | 2.0 | 0.00 | 0.32 | 0.32 | 85 | 1006.8 |
| 20260506221956 | 69 | 191 | 0.0 | 2.0 | 0.00 | 0.32 | 0.32 | 85 | 1006.8 |
| 20260506221854 | 69 | 180 | 0.0 | 2.0 | 0.00 | 0.32 | 0.32 | 85 | 1006.8 |
| 20260506221752 | 69 | 180 | 0.0 | 2.0 | 0.00 | 0.32 | 0.32 | 86 | 1006.8 |
| 20260506221648 | 69 | 180 | 0.0 | 2.0 | 0.00 | 0.32 | 0.32 | 86 | 1006.8 |
| 20260506221542 | 69 | 205 | 0.0 | 2.0 | 0.00 | 0.32 | 0.32 | 85 | 1006.8 |
| 20260506221217 | 69 | 113 | 0.0 | 2.0 | 0.00 | 0.32 | 0.32 | 85 | 1006.8 |
| 20260506221110 | 69 | 177 | 0.0 | 2.0 | 0.00 | 0.32 | 0.32 | 85 | 1006.8 |
| 20260506221007 | 69 | 177 | 0.0 | 1.0 | 0.00 | 0.32 | 0.32 | 84 | 1006.8 |
| 20260506220904 | 69 | 177 | 0.0 | 1.0 | 0.00 | 0.32 | 0.32 | 84 | 1006.8 |
| 20260506220542 | 69 | 350 | 0.0 | 1.0 | 0.00 | 0.32 | 0.32 | 84 | 1006.7 |
| 20260506220218 | 69 | 143 | 0.0 | 1.0 | 0.00 | 0.32 | 0.32 | 85 | 1006.8 |
| 20260506220115 | 69 | 42 | 0.0 | 1.0 | 0.00 | 0.32 | 0.32 | 85 | 1006.8 |
| 20260506220007 | 69 | 171 | 0.0 | 0.0 | 0.00 | 0.32 | 0.32 | 85 | 1006.9 |
| 20260506215903 | 69 | 171 | 0.0 | 0.0 | 0.00 | 0.32 | 0.32 | 85 | 1006.9 |
| 20260506215539 | 69 | 227 | 0.0 | 2.0 | 0.00 | 0.32 | 0.32 | 85 | 1006.9 |
| 20260506215208 | 69 | 63 | 0.0 | 2.0 | 0.00 | 0.32 | 0.32 | 86 | 1007.0 |
| 20260506215102 | 69 | 59 | 0.0 | 1.0 | 0.00 | 0.32 | 0.32 | 86 | 1007.0 |
| 20260506214522 | 69 | 107 | 0.0 | 0.0 | 0.00 | 0.32 | 0.32 | 86 | 1006.9 |
| 20260506214417 | 69 | 107 | 0.0 | 0.0 | 0.00 | 0.32 | 0.32 | 85 | 1006.9 |
| 20260506214313 | 69 | 107 | 0.0 | 0.0 | 0.00 | 0.32 | 0.32 | 85 | 1006.9 |
| 20260506214209 | 69 | 167 | 0.0 | 0.0 | 0.00 | 0.32 | 0.32 | 85 | 1006.9 |
| 20260506214105 | 69 | 167 | 0.0 | 4.0 | 0.00 | 0.32 | 0.32 | 85 | 1006.8 |
| 20260506213959 | 69 | 167 | 0.0 | 4.0 | 0.00 | 0.32 | 0.32 | 85 | 1006.8 |
| 20260506213634 | 69 | 119 | 0.0 | 4.0 | 0.00 | 0.32 | 0.32 | 84 | 1006.8 |
| 20260506213527 | 69 | 119 | 0.0 | 4.0 | 0.00 | 0.32 | 0.32 | 84 | 1006.8 |
| 20260506213420 | 69 | 109 | 0.0 | 4.0 | 0.00 | 0.32 | 0.32 | 84 | 1006.8 |
| 20260506213314 | 68 | 37 | 0.0 | 4.0 | 0.00 | 0.32 | 0.32 | 84 | 1006.9 |
| 20260506213211 | 69 | 101 | 0.0 | 4.0 | 0.00 | 0.32 | 0.32 | 84 | 1006.9 |
| 20260506213106 | 69 | 97 | 0.0 | 2.0 | 0.00 | 0.32 | 0.32 | 84 | 1006.9 |
| 20260506213003 | 68 | 144 | 0.0 | 2.0 | 0.00 | 0.32 | 0.32 | 83 | 1006.8 |
| 20260506212859 | 69 | 242 | 0.0 | 2.0 | 0.00 | 0.32 | 0.32 | 84 | 1006.8 |
| 20260506212753 | 69 | 267 | 0.0 | 2.0 | 0.00 | 0.32 | 0.32 | 84 | 1006.8 |
| 20260506212647 | 69 | 244 | 0.0 | 2.0 | 0.00 | 0.32 | 0.32 | 85 | 1006.8 |
| 20260506212541 | 69 | 130 | 0.0 | 2.0 | 0.00 | 0.32 | 0.32 | 86 | 1006.9 |
| 20260506212220 | 68 | 155 | 0.0 | 5.0 | 0.00 | 0.32 | 0.32 | 85 | 1006.8 |
| 20260506212118 | 69 | 175 | 0.0 | 5.0 | 0.00 | 0.32 | 0.32 | 85 | 1006.8 |
| 20260506211755 | 68 | 136 | 0.0 | 5.0 | 0.00 | 0.32 | 0.32 | 85 | 1006.8 |
| 20260506211653 | 69 | 134 | 0.0 | 5.0 | 0.00 | 0.32 | 0.32 | 86 | 1006.7 |
| 20260506211547 | 69 | 248 | 0.0 | 5.0 | 0.00 | 0.32 | 0.32 | 86 | 1006.7 |
| 20260506211442 | 69 | 158 | 0.0 | 5.0 | 0.00 | 0.32 | 0.32 | 86 | 1006.8 |
| 20260506211337 | 69 | 19 | 0.0 | 5.0 | 0.00 | 0.32 | 0.32 | 86 | 1006.7 |
| 20260506211235 | 68 | 46 | 0.0 | 5.0 | 0.00 | 0.32 | 0.32 | 85 | 1006.7 |
| 20260506211128 | 69 | 28 | 0.0 | 5.0 | 0.00 | 0.32 | 0.32 | 85 | 1006.7 |
| 20260506211023 | 68 | 109 | 0.0 | 5.0 | 0.00 | 0.32 | 0.32 | 85 | 1006.7 |
| 20260506210919 | 69 | 108 | 0.0 | 5.0 | 0.00 | 0.32 | 0.32 | 85 | 1006.7 |
| 20260506210811 | 69 | 132 | 0.0 | 5.0 | 0.00 | 0.32 | 0.32 | 85 | 1006.8 |
| 20260506210705 | 68 | 117 | 0.0 | 5.0 | 0.00 | 0.32 | 0.32 | 84 | 1006.8 |
| 20260506210600 | 68 | 111 | 0.0 | 5.0 | 0.00 | 0.32 | 0.32 | 84 | 1006.8 |
| 20260506210454 | 68 | 86 | 0.0 | 5.0 | 0.00 | 0.32 | 0.32 | 85 | 1006.8 |
| 20260506210351 | 68 | 165 | 0.0 | 5.0 | 0.00 | 0.32 | 0.32 | 85 | 1006.7 |
| 20260506210247 | 69 | 324 | 0.0 | 3.0 | 0.00 | 0.32 | 0.32 | 85 | 1006.7 |
| 20260506210140 | 69 | 142 | 0.0 | 3.0 | 0.00 | 0.32 | 0.32 | 85 | 1006.7 |
| 20260506210036 | 68 | 134 | 0.0 | 3.0 | 0.00 | 0.32 | 0.32 | 85 | 1006.7 |
| 20260506205934 | 68 | 281 | 0.0 | 3.0 | 0.00 | 0.32 | 0.32 | 85 | 1006.7 |
| 20260506205832 | 68 | 106 | 0.0 | 3.0 | 0.00 | 0.32 | 0.32 | 85 | 1006.6 |
| 20260506205724 | 68 | 105 | 0.0 | 3.0 | 0.00 | 0.32 | 0.32 | 85 | 1006.6 |
| 20260506205618 | 68 | 113 | 0.0 | 3.0 | 0.00 | 0.32 | 0.32 | 84 | 1006.6 |
| 20260506205513 | 68 | 113 | 0.0 | 3.0 | 0.00 | 0.32 | 0.32 | 84 | 1006.6 |
| 20260506205411 | 68 | 132 | 0.0 | 3.0 | 0.00 | 0.32 | 0.32 | 84 | 1006.6 |
| 20260506205309 | 68 | 0 | 0.0 | 5.0 | 0.00 | 0.32 | 0.32 | 85 | 1006.7 |
| 20260506205201 | 68 | 103 | 0.0 | 5.0 | 0.00 | 0.32 | 0.32 | 85 | 1006.7 |
| 20260506205059 | 68 | 209 | 0.0 | 5.0 | 0.00 | 0.32 | 0.32 | 85 | 1006.7 |
| 20260506204951 | 68 | 157 | 1.0 | 5.0 | 0.00 | 0.32 | 0.32 | 84 | 1006.7 |
| 20260506204845 | 68 | 175 | 1.0 | 5.0 | 0.00 | 0.32 | 0.32 | 85 | 1006.7 |
| 20260506204739 | 68 | 192 | 1.0 | 5.0 | 0.00 | 0.32 | 0.32 | 85 | 1006.7 |
| 20260506204635 | 68 | 136 | 1.0 | 5.0 | 0.00 | 0.32 | 0.32 | 84 | 1006.7 |
| 20260506204531 | 68 | 208 | 0.0 | 5.0 | 0.00 | 0.32 | 0.32 | 84 | 1006.7 |
| 20260506204427 | 68 | 230 | 0.0 | 5.0 | 0.00 | 0.32 | 0.32 | 84 | 1006.7 |
| 20260506204320 | 68 | 242 | 0.0 | 5.0 | 0.00 | 0.32 | 0.32 | 84 | 1006.6 |
| 20260506204215 | 68 | 163 | 0.0 | 6.0 | 0.00 | 0.32 | 0.32 | 84 | 1006.6 |
| 20260506204114 | 68 | 141 | 0.0 | 6.0 | 0.00 | 0.32 | 0.32 | 84 | 1006.5 |
| 20260506204011 | 68 | 211 | 0.0 | 6.0 | 0.00 | 0.32 | 0.32 | 84 | 1006.4 |
| 20260506203905 | 68 | 180 | 0.0 | 6.0 | 0.00 | 0.32 | 0.32 | 84 | 1006.4 |
| 20260506203758 | 68 | 114 | 0.0 | 6.0 | 0.00 | 0.32 | 0.32 | 84 | 1006.4 |
| 20260506203655 | 68 | 193 | 0.0 | 6.0 | 0.00 | 0.32 | 0.32 | 85 | 1006.5 |
| 20260506203553 | 68 | 214 | 0.0 | 6.0 | 0.00 | 0.32 | 0.32 | 84 | 1006.5 |
| 20260506203446 | 68 | 148 | 0.0 | 6.0 | 0.00 | 0.32 | 0.32 | 84 | 1006.5 |
| 20260506203344 | 68 | 199 | 0.0 | 6.0 | 0.00 | 0.32 | 0.32 | 84 | 1006.5 |
| 20260506203013 | 68 | 200 | 0.0 | 6.0 | 0.00 | 0.32 | 0.32 | 84 | 1006.4 |
| 20260506202906 | 68 | 118 | 0.0 | 6.0 | 0.00 | 0.32 | 0.32 | 84 | 1006.5 |
| 20260506202804 | 68 | 76 | 0.0 | 6.0 | 0.00 | 0.32 | 0.32 | 84 | 1006.5 |
| 20260506202657 | 68 | 117 | 0.0 | 6.0 | 0.00 | 0.32 | 0.32 | 83 | 1006.5 |
| 20260506202552 | 68 | 128 | 0.0 | 6.0 | 0.00 | 0.32 | 0.32 | 83 | 1006.5 |
| 20260506202445 | 68 | 221 | 0.0 | 6.0 | 0.00 | 0.32 | 0.32 | 83 | 1006.5 |
| 20260506202338 | 68 | 218 | 0.0 | 6.0 | 0.00 | 0.32 | 0.32 | 85 | 1006.4 |
| 20260506202233 | 68 | 72 | 0.0 | 3.0 | 0.00 | 0.32 | 0.32 | 85 | 1006.5 |
| 20260506202130 | 68 | 31 | 0.0 | 3.0 | 0.00 | 0.32 | 0.32 | 85 | 1006.5 |
| 20260506202029 | 68 | 163 | 0.0 | 3.0 | 0.00 | 0.32 | 0.32 | 84 | 1006.6 |
| 20260506201705 | 68 | 234 | 1.0 | 5.0 | 0.00 | 0.32 | 0.32 | 84 | 1006.4 |
| 20260506201600 | 68 | 238 | 0.0 | 5.0 | 0.00 | 0.32 | 0.32 | 84 | 1006.5 |
| 20260506201453 | 68 | 144 | 0.0 | 5.0 | 0.00 | 0.32 | 0.32 | 84 | 1006.5 |
| 20260506201350 | 68 | 249 | 1.0 | 5.0 | 0.00 | 0.32 | 0.32 | 83 | 1006.5 |
| 20260506201244 | 68 | 94 | 1.0 | 5.0 | 0.00 | 0.32 | 0.32 | 83 | 1006.4 |
| 20260506201136 | 68 | 184 | 1.0 | 5.0 | 0.00 | 0.32 | 0.32 | 84 | 1006.3 |
| 20260506201030 | 68 | 121 | 0.0 | 5.0 | 0.00 | 0.32 | 0.32 | 84 | 1006.4 |
| 20260506200923 | 68 | 242 | 0.0 | 5.0 | 0.00 | 0.32 | 0.32 | 84 | 1006.4 |
| 20260506200817 | 68 | 150 | 0.0 | 5.0 | 0.00 | 0.32 | 0.32 | 84 | 1006.5 |
| 20260506200710 | 68 | 201 | 1.0 | 5.0 | 0.00 | 0.32 | 0.32 | 84 | 1006.5 |
| 20260506200605 | 68 | 178 | 1.0 | 5.0 | 0.00 | 0.32 | 0.32 | 84 | 1006.4 |
| 20260506200502 | 68 | 131 | 1.0 | 5.0 | 0.00 | 0.32 | 0.32 | 84 | 1006.4 |
| 20260506200357 | 68 | 254 | 0.0 | 5.0 | 0.00 | 0.32 | 0.32 | 84 | 1006.4 |
| 20260506200252 | 68 | 238 | 0.0 | 5.0 | 0.00 | 0.32 | 0.32 | 85 | 1006.4 |
| 20260506200145 | 68 | 156 | 0.0 | 5.0 | 0.00 | 0.32 | 0.32 | 85 | 1006.5 |
| 20260506200037 | 68 | 110 | 0.0 | 5.0 | 0.00 | 0.32 | 0.32 | 86 | 1006.5 |
| 20260506195931 | 68 | 219 | 0.0 | 5.0 | 0.00 | 0.32 | 0.32 | 86 | 1006.6 |
| 20260506195829 | 68 | 0 | 1.0 | 5.0 | 0.00 | 0.32 | 0.32 | 85 | 1006.4 |